Wetterdaten: Freitag, 13.02.2026
Datum Zeit Temp. Aussen Temp. o. S. Temp +5cm Feuchte Auss Luftdruck Regen Sonnenschein Regendauer Solar Windböen Empfang
13.02.2026 00:00 7,9 °C 7,2 °C 4,4 °C 94 % 988,2 hPa 0,0 l/m² 0 min 0 min 0 W/m² 12,9 km/h (3 Bft) 95,74 %
13.02.2026 00:02 7,9 °C 7,2 °C 4,4 °C 94 % 988,3 hPa 0,0 l/m² 0 min 0 min 0 W/m² 6,4 km/h (2 Bft) 91,89 %
13.02.2026 00:04 7,9 °C 7,2 °C 4,4 °C 94 % 988,3 hPa 0,0 l/m² 0 min 0 min 0 W/m² 6,4 km/h (2 Bft) 95,83 %
13.02.2026 00:07 7,9 °C 7,2 °C 4,4 °C 94 % 988,4 hPa 0,0 l/m² 0 min 0 min 0 W/m² 9,7 km/h (2 Bft) 94,81 %
13.02.2026 00:08 7,9 °C 7,2 °C 4,4 °C 94 % 988,4 hPa 0,0 l/m² 0 min 0 min 0 W/m² 6,4 km/h (2 Bft) 95,83 %
13.02.2026 00:10 7,8 °C 7,2 °C 4,4 °C 94 % 988,4 hPa 0,0 l/m² 0 min 0 min 0 W/m² 12,9 km/h (3 Bft) 95,74 %
13.02.2026 00:12 7,8 °C 7,2 °C 3,9 °C 94 % 988,4 hPa 0,0 l/m² 0 min 0 min 0 W/m² 6,4 km/h (2 Bft) 93,62 %
13.02.2026 00:14 7,9 °C 7,2 °C 3,9 °C 94 % 988,5 hPa 0,0 l/m² 0 min 0 min 0 W/m² 9,7 km/h (2 Bft) 95,74 %
13.02.2026 00:16 7,8 °C 7,2 °C 3,9 °C 94 % 988,4 hPa 0,0 l/m² 0 min 0 min 0 W/m² 6,4 km/h (2 Bft) 95,65 %
13.02.2026 00:18 7,8 °C 7,2 °C 3,9 °C 95 % 988,5 hPa 0,0 l/m² 0 min 0 min 0 W/m² 16,1 km/h (3 Bft) 93,62 %
13.02.2026 00:20 7,8 °C 7,2 °C 3,9 °C 94 % 988,5 hPa 0,0 l/m² 0 min 0 min 0 W/m² 6,4 km/h (2 Bft) 97,87 %
13.02.2026 00:22 7,8 °C 7,2 °C 3,9 °C 94 % 988,5 hPa 0,0 l/m² 0 min 2 min 0 W/m² 12,9 km/h (3 Bft) 97,87 %
13.02.2026 00:24 7,8 °C 6,7 °C 3,9 °C 94 % 988,6 hPa 0,0 l/m² 0 min 0 min 0 W/m² 16,1 km/h (3 Bft) 97,87 %
13.02.2026 00:26 7,8 °C 6,7 °C 3,9 °C 95 % 988,6 hPa 0,0 l/m² 0 min 0 min 0 W/m² 25,7 km/h (4 Bft) 97,87 %
13.02.2026 00:28 7,7 °C 6,7 °C 3,9 °C 95 % 988,6 hPa 0,0 l/m² 0 min 0 min 0 W/m² 19,3 km/h (3 Bft) 97,87 %
13.02.2026 00:30 7,7 °C 6,7 °C 3,9 °C 95 % 988,6 hPa 0,0 l/m² 0 min 0 min 0 W/m² 12,9 km/h (3 Bft) 100,00 %
13.02.2026 00:32 7,6 °C 6,7 °C 3,9 °C 95 % 988,7 hPa 0,0 l/m² 0 min 0 min 0 W/m² 12,9 km/h (3 Bft) 95,74 %
13.02.2026 00:34 7,6 °C 6,7 °C 3,9 °C 95 % 988,6 hPa 0,0 l/m² 0 min 0 min 0 W/m² 12,9 km/h (3 Bft) 100,00 %
13.02.2026 00:36 7,6 °C 6,7 °C 3,9 °C 95 % 988,6 hPa 0,0 l/m² 0 min 0 min 0 W/m² 9,7 km/h (2 Bft) 100,00 %
13.02.2026 00:38 7,5 °C 6,7 °C 3,3 °C 95 % 988,6 hPa 0,0 l/m² 0 min 0 min 0 W/m² 12,9 km/h (3 Bft) 100,00 %
13.02.2026 00:40 7,4 °C 6,7 °C 3,3 °C 95 % 988,7 hPa 0,0 l/m² 0 min 0 min 0 W/m² 12,9 km/h (3 Bft) 97,87 %
13.02.2026 00:42 7,4 °C 6,7 °C 3,3 °C 95 % 988,8 hPa 0,0 l/m² 0 min 0 min 0 W/m² 16,1 km/h (3 Bft) 100,00 %
13.02.2026 00:44 7,3 °C 6,7 °C 3,3 °C 95 % 988,8 hPa 0,2 l/m² 0 min 0 min 0 W/m² 6,4 km/h (2 Bft) 100,00 %
13.02.2026 00:46 7,3 °C 6,7 °C 3,3 °C 95 % 988,7 hPa 0,0 l/m² 0 min 0 min 0 W/m² 12,9 km/h (3 Bft) 100,00 %
13.02.2026 00:48 7,2 °C 6,7 °C 3,3 °C 95 % 988,7 hPa 0,0 l/m² 0 min 0 min 0 W/m² 16,1 km/h (3 Bft) 100,00 %
13.02.2026 00:50 7,2 °C 6,7 °C 3,3 °C 95 % 988,7 hPa 0,0 l/m² 0 min 0 min 0 W/m² 12,9 km/h (3 Bft) 100,00 %
13.02.2026 00:52 7,2 °C 6,7 °C 3,3 °C 95 % 988,7 hPa 0,0 l/m² 0 min 0 min 0 W/m² 12,9 km/h (3 Bft) 100,00 %
13.02.2026 00:54 7,1 °C 6,1 °C 3,3 °C 95 % 988,8 hPa 0,0 l/m² 0 min 0 min 0 W/m² 19,3 km/h (3 Bft) 100,00 %
13.02.2026 00:56 7,1 °C 6,1 °C 3,3 °C 95 % 988,8 hPa 0,0 l/m² 0 min 0 min 0 W/m² 12,9 km/h (3 Bft) 100,00 %
13.02.2026 00:58 7,1 °C 6,1 °C 3,3 °C 96 % 988,8 hPa 0,0 l/m² 0 min 0 min 0 W/m² 12,9 km/h (3 Bft) 100,00 %
13.02.2026 01:00 7,1 °C 6,1 °C 3,3 °C 96 % 988,8 hPa 0,0 l/m² 0 min 2 min 0 W/m² 12,9 km/h (3 Bft) 97,14 %
13.02.2026 01:02 7,1 °C 6,1 °C 3,3 °C 95 % 988,9 hPa 0,0 l/m² 0 min 0 min 0 W/m² 12,9 km/h (3 Bft) 100,00 %
13.02.2026 01:04 7,1 °C 6,1 °C 3,3 °C 96 % 988,9 hPa 0,0 l/m² 0 min 0 min 0 W/m² 12,9 km/h (3 Bft) 100,00 %
13.02.2026 01:06 7,0 °C 6,1 °C 3,3 °C 96 % 989,0 hPa 0,0 l/m² 0 min 2 min 0 W/m² 12,9 km/h (3 Bft) 95,31 %
13.02.2026 01:08 6,9 °C 6,1 °C 3,3 °C 96 % 989,0 hPa 0,0 l/m² 0 min 0 min 0 W/m² 12,9 km/h (3 Bft) 97,14 %
13.02.2026 01:10 6,9 °C 6,1 °C 3,3 °C 96 % 989,0 hPa 0,0 l/m² 0 min 0 min 0 W/m² 6,4 km/h (2 Bft) 97,92 %
13.02.2026 01:12 6,9 °C 6,1 °C 3,3 °C 96 % 989,0 hPa 0,0 l/m² 0 min 0 min 0 W/m² 9,7 km/h (2 Bft) 95,74 %
13.02.2026 01:14 6,9 °C 6,1 °C 3,3 °C 96 % 989,1 hPa 0,0 l/m² 0 min 0 min 0 W/m² 12,9 km/h (3 Bft) 97,87 %
13.02.2026 01:16 6,9 °C 6,1 °C 3,3 °C 96 % 989,1 hPa 0,0 l/m² 0 min 0 min 0 W/m² 19,3 km/h (3 Bft) 97,87 %
13.02.2026 01:18 6,8 °C 6,1 °C 3,3 °C 96 % 989,1 hPa 0,0 l/m² 0 min 0 min 0 W/m² 22,5 km/h (4 Bft) 97,87 %
13.02.2026 01:20 6,8 °C 6,1 °C 3,3 °C 96 % 989,1 hPa 0,0 l/m² 0 min 0 min 0 W/m² 12,9 km/h (3 Bft) 97,87 %
13.02.2026 01:22 6,7 °C 6,1 °C 3,3 °C 96 % 989,1 hPa 0,0 l/m² 0 min 0 min 0 W/m² 16,1 km/h (3 Bft) 97,87 %
13.02.2026 01:24 6,7 °C 6,1 °C 3,3 °C 96 % 989,1 hPa 0,0 l/m² 0 min 0 min 0 W/m² 12,9 km/h (3 Bft) 91,49 %
13.02.2026 01:26 6,7 °C 6,1 °C 3,3 °C 96 % 989,2 hPa 0,0 l/m² 0 min 0 min 0 W/m² 12,9 km/h (3 Bft) 93,62 %
13.02.2026 01:28 6,7 °C 6,1 °C 3,3 °C 96 % 989,2 hPa 0,0 l/m² 0 min 0 min 0 W/m² 12,9 km/h (3 Bft) 97,87 %
13.02.2026 01:30 6,6 °C 6,1 °C 3,3 °C 96 % 989,2 hPa 0,0 l/m² 0 min 0 min 0 W/m² 12,9 km/h (3 Bft) 97,83 %
13.02.2026 01:32 6,6 °C 6,1 °C 3,3 °C 96 % 989,3 hPa 0,0 l/m² 0 min 0 min 0 W/m² 16,1 km/h (3 Bft) 95,74 %
13.02.2026 01:34 6,6 °C 6,1 °C 3,3 °C 96 % 989,3 hPa 0,0 l/m² 0 min 0 min 0 W/m² 12,9 km/h (3 Bft) 97,87 %
13.02.2026 01:36 6,6 °C 6,1 °C 3,3 °C 96 % 989,4 hPa 0,0 l/m² 0 min 0 min 0 W/m² 16,1 km/h (3 Bft) 95,74 %
13.02.2026 01:38 6,6 °C 6,1 °C 3,3 °C 95 % 989,4 hPa 0,0 l/m² 0 min 0 min 0 W/m² 12,9 km/h (3 Bft) 95,74 %
13.02.2026 01:40 6,6 °C 6,1 °C 3,3 °C 95 % 989,5 hPa 0,0 l/m² 0 min 0 min 0 W/m² 25,7 km/h (4 Bft) 93,62 %
13.02.2026 01:42 6,6 °C 6,1 °C 3,3 °C 95 % 989,4 hPa 0,0 l/m² 0 min 0 min 0 W/m² 25,7 km/h (4 Bft) 93,62 %
13.02.2026 01:44 6,6 °C 6,1 °C 3,3 °C 95 % 989,4 hPa 0,0 l/m² 0 min 0 min 0 W/m² 12,9 km/h (3 Bft) 95,74 %
13.02.2026 01:46 6,5 °C 6,1 °C 3,3 °C 95 % 989,5 hPa 0,0 l/m² 0 min 0 min 0 W/m² 22,5 km/h (4 Bft) 93,62 %
13.02.2026 01:48 6,5 °C 6,1 °C 3,3 °C 95 % 989,5 hPa 0,0 l/m² 0 min 0 min 0 W/m² 12,9 km/h (3 Bft) 97,87 %
13.02.2026 01:50 6,5 °C 6,1 °C 3,3 °C 95 % 989,6 hPa 0,0 l/m² 0 min 0 min 0 W/m² 16,1 km/h (3 Bft) 95,74 %
13.02.2026 01:52 6,5 °C 6,1 °C 3,3 °C 95 % 989,7 hPa 0,0 l/m² 0 min 0 min 0 W/m² 16,1 km/h (3 Bft) 93,62 %
13.02.2026 01:54 6,4 °C 6,1 °C 3,3 °C 94 % 989,6 hPa 0,0 l/m² 0 min 0 min 0 W/m² 29,0 km/h (5 Bft) 53,33 %
13.02.2026 01:56 6,4 °C 6,1 °C 3,3 °C 94 % 989,7 hPa 0,0 l/m² 0 min 0 min 0 W/m² 19,3 km/h (3 Bft) 93,62 %
13.02.2026 01:58 6,4 °C 6,1 °C 3,3 °C 94 % 989,7 hPa 0,0 l/m² 0 min 0 min 0 W/m² 16,1 km/h (3 Bft) 93,62 %
13.02.2026 02:00 6,3 °C 6,1 °C 3,3 °C 93 % 989,8 hPa 0,0 l/m² 0 min 0 min 0 W/m² 29,0 km/h (5 Bft) 93,62 %
13.02.2026 02:02 6,3 °C 6,1 °C 2,8 °C 93 % 989,7 hPa 0,0 l/m² 0 min 0 min 0 W/m² 12,9 km/h (3 Bft) 95,74 %
13.02.2026 02:04 6,3 °C 6,1 °C 2,8 °C 93 % 989,8 hPa 0,0 l/m² 0 min 0 min 0 W/m² 19,3 km/h (3 Bft) 95,74 %
13.02.2026 02:06 6,3 °C 6,1 °C 2,8 °C 93 % 989,8 hPa 0,0 l/m² 0 min 0 min 0 W/m² 19,3 km/h (3 Bft) 97,87 %
13.02.2026 02:08 6,3 °C 5,6 °C 2,8 °C 92 % 989,8 hPa 0,0 l/m² 0 min 0 min 0 W/m² 22,5 km/h (4 Bft) 93,75 %
13.02.2026 02:10 6,3 °C 5,6 °C 2,8 °C 92 % 989,8 hPa 0,0 l/m² 0 min 0 min 0 W/m² 19,3 km/h (3 Bft) 95,74 %
13.02.2026 02:12 6,3 °C 5,6 °C 2,8 °C 92 % 989,8 hPa 0,0 l/m² 0 min 0 min 0 W/m² 16,1 km/h (3 Bft) 100,00 %
13.02.2026 02:14 6,3 °C 5,6 °C 2,8 °C 92 % 989,9 hPa 0,0 l/m² 0 min 0 min 0 W/m² 19,3 km/h (3 Bft) 97,87 %
13.02.2026 02:16 6,3 °C 5,6 °C 2,8 °C 92 % 990,0 hPa 0,0 l/m² 0 min 0 min 0 W/m² 9,7 km/h (2 Bft) 97,83 %
13.02.2026 02:18 6,3 °C 5,6 °C 2,8 °C 92 % 989,9 hPa 0,0 l/m² 0 min 0 min 0 W/m² 16,1 km/h (3 Bft) 93,62 %
13.02.2026 02:20 6,2 °C 5,6 °C 2,8 °C 92 % 990,0 hPa 0,0 l/m² 0 min 0 min 0 W/m² 29,0 km/h (5 Bft) 97,87 %
13.02.2026 02:22 6,2 °C 5,6 °C 2,8 °C 91 % 990,0 hPa 0,0 l/m² 0 min 0 min 0 W/m² 19,3 km/h (3 Bft) 98,00 %
13.02.2026 02:24 6,2 °C 5,6 °C 2,8 °C 91 % 990,0 hPa 0,0 l/m² 0 min 0 min 0 W/m² 19,3 km/h (3 Bft) 97,87 %
13.02.2026 02:26 6,2 °C 5,6 °C 2,8 °C 91 % 990,1 hPa 0,0 l/m² 0 min 0 min 0 W/m² 16,1 km/h (3 Bft) 97,87 %
13.02.2026 02:28 6,2 °C 5,6 °C 2,8 °C 91 % 990,2 hPa 0,0 l/m² 0 min 0 min 0 W/m² 22,5 km/h (4 Bft) 93,62 %
13.02.2026 02:30 6,2 °C 5,6 °C 2,8 °C 91 % 990,2 hPa 0,0 l/m² 0 min 0 min 0 W/m² 19,3 km/h (3 Bft) 95,74 %
13.02.2026 02:32 6,2 °C 5,6 °C 2,8 °C 91 % 990,3 hPa 0,0 l/m² 0 min 0 min 0 W/m² 12,9 km/h (3 Bft) 95,74 %
13.02.2026 02:34 6,1 °C 5,6 °C 2,8 °C 91 % 990,2 hPa 0,0 l/m² 0 min 0 min 0 W/m² 12,9 km/h (3 Bft) 97,87 %
13.02.2026 02:36 6,1 °C 5,6 °C 2,8 °C 91 % 990,2 hPa 0,0 l/m² 0 min 0 min 0 W/m² 22,5 km/h (4 Bft) 97,87 %
13.02.2026 02:38 6,1 °C 5,6 °C 2,8 °C 91 % 990,3 hPa 0,0 l/m² 0 min 0 min 0 W/m² 19,3 km/h (3 Bft) 97,83 %
13.02.2026 02:40 6,1 °C 5,6 °C 2,8 °C 91 % 990,2 hPa 0,0 l/m² 0 min 0 min 0 W/m² 22,5 km/h (4 Bft) 95,74 %
13.02.2026 02:42 6,1 °C 5,6 °C 2,8 °C 91 % 990,3 hPa 0,0 l/m² 0 min 0 min 0 W/m² 12,9 km/h (3 Bft) 97,87 %
13.02.2026 02:44 6,0 °C 5,6 °C 2,8 °C 91 % 990,3 hPa 0,0 l/m² 0 min 0 min 0 W/m² 12,9 km/h (3 Bft) 97,87 %
13.02.2026 02:46 6,0 °C 5,6 °C 2,8 °C 91 % 990,3 hPa 0,0 l/m² 0 min 0 min 0 W/m² 12,9 km/h (3 Bft) 97,87 %
13.02.2026 02:48 6,0 °C 5,6 °C 2,8 °C 91 % 990,3 hPa 0,0 l/m² 0 min 0 min 0 W/m² 19,3 km/h (3 Bft) 97,87 %
13.02.2026 02:50 6,0 °C 5,6 °C 2,8 °C 91 % 990,3 hPa 0,0 l/m² 0 min 0 min 0 W/m² 16,1 km/h (3 Bft) 97,87 %
13.02.2026 02:52 5,9 °C 5,6 °C 2,8 °C 91 % 990,4 hPa 0,0 l/m² 0 min 0 min 0 W/m² 19,3 km/h (3 Bft) 97,87 %
13.02.2026 02:54 5,9 °C 5,6 °C 2,8 °C 91 % 990,5 hPa 0,0 l/m² 0 min 0 min 0 W/m² 19,3 km/h (3 Bft) 97,87 %
13.02.2026 02:56 5,9 °C 5,6 °C 2,8 °C 91 % 990,4 hPa 0,0 l/m² 0 min 0 min 0 W/m² 22,5 km/h (4 Bft) 97,87 %
13.02.2026 02:58 5,9 °C 5,6 °C 2,2 °C 91 % 990,5 hPa 0,0 l/m² 0 min 0 min 0 W/m² 19,3 km/h (3 Bft) 100,00 %
13.02.2026 03:00 5,9 °C 5,6 °C 2,2 °C 91 % 990,5 hPa 0,0 l/m² 0 min 0 min 0 W/m² 16,1 km/h (3 Bft) 100,00 %
13.02.2026 03:02 5,9 °C 5,6 °C 2,2 °C 91 % 990,5 hPa 0,0 l/m² 0 min 0 min 0 W/m² 16,1 km/h (3 Bft) 97,96 %
13.02.2026 03:04 5,9 °C 5,6 °C 2,2 °C 91 % 990,5 hPa 0,0 l/m² 0 min 0 min 0 W/m² 12,9 km/h (3 Bft) 100,00 %
13.02.2026 03:06 5,9 °C 5,6 °C 2,2 °C 91 % 990,6 hPa 0,0 l/m² 0 min 0 min 0 W/m² 16,1 km/h (3 Bft) 100,00 %
13.02.2026 03:08 5,9 °C 5,6 °C 2,2 °C 91 % 990,5 hPa 0,0 l/m² 0 min 0 min 0 W/m² 9,7 km/h (2 Bft) 97,92 %
13.02.2026 03:10 5,8 °C 5,6 °C 2,2 °C 91 % 990,6 hPa 0,0 l/m² 0 min 0 min 0 W/m² 16,1 km/h (3 Bft) 100,00 %
13.02.2026 03:12 5,8 °C 5,0 °C 2,2 °C 91 % 990,6 hPa 0,0 l/m² 0 min 0 min 0 W/m² 12,9 km/h (3 Bft) 100,00 %
13.02.2026 03:14 5,8 °C 5,0 °C 2,2 °C 91 % 990,6 hPa 0,0 l/m² 0 min 0 min 0 W/m² 6,4 km/h (2 Bft) 100,00 %
13.02.2026 03:16 5,8 °C 5,0 °C 2,2 °C 91 % 990,5 hPa 0,0 l/m² 0 min 0 min 0 W/m² 12,9 km/h (3 Bft) 97,87 %
13.02.2026 03:18 5,8 °C 5,0 °C 2,2 °C 91 % 990,7 hPa 0,0 l/m² 0 min 0 min 0 W/m² 16,1 km/h (3 Bft) 100,00 %
13.02.2026 03:20 5,8 °C 5,0 °C 2,2 °C 91 % 990,6 hPa 0,0 l/m² 0 min 0 min 0 W/m² 16,1 km/h (3 Bft) 100,00 %
13.02.2026 03:22 5,8 °C 5,0 °C 2,2 °C 91 % 990,6 hPa 0,0 l/m² 0 min 0 min 0 W/m² 12,9 km/h (3 Bft) 97,87 %
13.02.2026 03:24 5,8 °C 5,0 °C 2,2 °C 91 % 990,7 hPa 0,0 l/m² 0 min 0 min 0 W/m² 16,1 km/h (3 Bft) 97,87 %
13.02.2026 03:26 5,8 °C 5,0 °C 2,2 °C 91 % 990,6 hPa 0,0 l/m² 0 min 0 min 0 W/m² 9,7 km/h (2 Bft) 100,00 %
13.02.2026 03:28 5,8 °C 5,0 °C 2,2 °C 91 % 990,7 hPa 0,0 l/m² 0 min 0 min 0 W/m² 9,7 km/h (2 Bft) 97,83 %
13.02.2026 03:30 5,8 °C 5,0 °C 2,2 °C 91 % 990,6 hPa 0,0 l/m² 0 min 0 min 0 W/m² 19,3 km/h (3 Bft) 97,87 %
13.02.2026 03:32 5,7 °C 5,0 °C 2,2 °C 91 % 990,6 hPa 0,0 l/m² 0 min 0 min 0 W/m² 16,1 km/h (3 Bft) 95,74 %
13.02.2026 03:34 5,7 °C 5,0 °C 2,2 °C 91 % 990,7 hPa 0,0 l/m² 0 min 0 min 0 W/m² 19,3 km/h (3 Bft) 93,62 %
13.02.2026 03:36 5,7 °C 5,0 °C 2,2 °C 91 % 990,6 hPa 0,0 l/m² 0 min 0 min 0 W/m² 16,1 km/h (3 Bft) 97,87 %
13.02.2026 03:38 5,7 °C 5,0 °C 2,2 °C 91 % 990,7 hPa 0,0 l/m² 0 min 0 min 0 W/m² 22,5 km/h (4 Bft) 97,87 %
13.02.2026 03:40 5,7 °C 5,0 °C 2,2 °C 91 % 990,7 hPa 0,0 l/m² 0 min 0 min 0 W/m² 12,9 km/h (3 Bft) 95,74 %
13.02.2026 03:42 5,7 °C 5,0 °C 2,2 °C 91 % 990,7 hPa 0,0 l/m² 0 min 0 min 0 W/m² 16,1 km/h (3 Bft) 97,87 %
13.02.2026 03:44 5,7 °C 5,0 °C 2,2 °C 91 % 990,7 hPa 0,0 l/m² 0 min 0 min 0 W/m² 22,5 km/h (4 Bft) 97,87 %
13.02.2026 03:46 5,6 °C 5,0 °C 2,2 °C 91 % 990,7 hPa 0,0 l/m² 0 min 0 min 0 W/m² 19,3 km/h (3 Bft) 93,62 %
13.02.2026 03:48 5,6 °C 5,0 °C 2,2 °C 91 % 990,7 hPa 0,0 l/m² 0 min 0 min 0 W/m² 22,5 km/h (4 Bft) 97,87 %
13.02.2026 03:50 5,6 °C 5,0 °C 2,2 °C 91 % 990,8 hPa 0,0 l/m² 0 min 0 min 0 W/m² 19,3 km/h (3 Bft) 95,74 %
13.02.2026 03:52 5,6 °C 5,0 °C 2,2 °C 91 % 990,7 hPa 0,0 l/m² 0 min 0 min 0 W/m² 16,1 km/h (3 Bft) 97,83 %
13.02.2026 03:54 5,6 °C 5,0 °C 2,2 °C 91 % 990,8 hPa 0,0 l/m² 0 min 0 min 0 W/m² 12,9 km/h (3 Bft) 93,62 %
13.02.2026 03:56 5,6 °C 5,0 °C 2,2 °C 91 % 990,8 hPa 0,0 l/m² 0 min 0 min 0 W/m² 12,9 km/h (3 Bft) 95,74 %
13.02.2026 03:58 5,6 °C 5,0 °C 2,2 °C 91 % 990,8 hPa 0,0 l/m² 0 min 0 min 0 W/m² 9,7 km/h (2 Bft) 100,00 %
13.02.2026 04:00 5,6 °C 5,0 °C 2,2 °C 91 % 990,8 hPa 0,0 l/m² 0 min 0 min 0 W/m² 16,1 km/h (3 Bft) 100,00 %
13.02.2026 04:02 5,6 °C 5,0 °C 2,2 °C 91 % 990,9 hPa 0,0 l/m² 0 min 0 min 0 W/m² 16,1 km/h (3 Bft) 100,00 %
13.02.2026 04:04 5,6 °C 5,0 °C 2,2 °C 91 % 990,9 hPa 0,0 l/m² 0 min 0 min 0 W/m² 12,9 km/h (3 Bft) 97,87 %
13.02.2026 04:06 5,6 °C 5,0 °C 2,2 °C 91 % 990,9 hPa 0,0 l/m² 0 min 0 min 0 W/m² 16,1 km/h (3 Bft) 97,87 %
13.02.2026 04:08 5,6 °C 5,0 °C 2,2 °C 91 % 990,8 hPa 0,0 l/m² 0 min 0 min 0 W/m² 19,3 km/h (3 Bft) 95,83 %
13.02.2026 04:10 5,6 °C 5,0 °C 2,2 °C 91 % 990,9 hPa 0,0 l/m² 0 min 0 min 0 W/m² 16,1 km/h (3 Bft) 93,62 %
13.02.2026 04:12 5,6 °C 5,0 °C 2,2 °C 91 % 990,9 hPa 0,0 l/m² 0 min 0 min 0 W/m² 22,5 km/h (4 Bft) 100,00 %
13.02.2026 04:14 5,5 °C 5,0 °C 2,2 °C 91 % 990,9 hPa 0,0 l/m² 0 min 0 min 0 W/m² 16,1 km/h (3 Bft) 54,35 %
13.02.2026 04:16 5,5 °C 5,0 °C 2,2 °C 90 % 990,8 hPa 0,0 l/m² 0 min 0 min 0 W/m² 22,5 km/h (4 Bft) 93,48 %
13.02.2026 04:18 5,5 °C 5,0 °C 2,2 °C 90 % 990,8 hPa 0,0 l/m² 0 min 0 min 0 W/m² 25,7 km/h (4 Bft) 97,87 %
13.02.2026 04:20 5,6 °C 5,0 °C 2,2 °C 90 % 990,9 hPa 0,0 l/m² 0 min 0 min 0 W/m² 19,3 km/h (3 Bft) 97,87 %
13.02.2026 04:22 5,6 °C 5,0 °C 2,2 °C 90 % 990,8 hPa 0,0 l/m² 0 min 0 min 0 W/m² 16,1 km/h (3 Bft) 97,87 %
13.02.2026 04:24 5,5 °C 5,0 °C 2,2 °C 90 % 990,9 hPa 0,0 l/m² 0 min 0 min 0 W/m² 19,3 km/h (3 Bft) 95,74 %
13.02.2026 04:26 5,6 °C 5,0 °C 2,2 °C 90 % 990,9 hPa 0,0 l/m² 0 min 0 min 0 W/m² 22,5 km/h (4 Bft) 91,49 %
13.02.2026 04:28 5,6 °C 5,0 °C 2,2 °C 90 % 990,9 hPa 0,0 l/m² 0 min 0 min 0 W/m² 25,7 km/h (4 Bft) 97,87 %
13.02.2026 04:30 5,6 °C 5,0 °C 2,2 °C 89 % 991,0 hPa 0,0 l/m² 0 min 0 min 0 W/m² 16,1 km/h (3 Bft) 97,87 %
13.02.2026 04:32 5,6 °C 5,0 °C 2,2 °C 89 % 990,9 hPa 0,0 l/m² 0 min 0 min 0 W/m² 25,7 km/h (4 Bft) 95,74 %
13.02.2026 04:34 5,6 °C 5,0 °C 2,2 °C 89 % 991,0 hPa 0,0 l/m² 0 min 0 min 0 W/m² 19,3 km/h (3 Bft) 97,87 %
13.02.2026 04:36 5,6 °C 5,0 °C 2,2 °C 90 % 991,0 hPa 0,0 l/m² 0 min 0 min 0 W/m² 22,5 km/h (4 Bft) 97,87 %
13.02.2026 04:38 5,6 °C 5,0 °C 2,2 °C 89 % 991,0 hPa 0,0 l/m² 0 min 0 min 0 W/m² 22,5 km/h (4 Bft) 95,65 %
13.02.2026 04:40 5,6 °C 5,0 °C 2,2 °C 90 % 991,0 hPa 0,0 l/m² 0 min 0 min 0 W/m² 22,5 km/h (4 Bft) 97,87 %
13.02.2026 04:42 5,6 °C 5,0 °C 2,2 °C 90 % 991,0 hPa 0,0 l/m² 0 min 0 min 0 W/m² 16,1 km/h (3 Bft) 95,74 %
13.02.2026 04:44 5,6 °C 5,0 °C 2,2 °C 90 % 991,0 hPa 0,0 l/m² 0 min 0 min 0 W/m² 25,7 km/h (4 Bft) 97,87 %
13.02.2026 04:46 5,6 °C 5,0 °C 2,2 °C 90 % 991,0 hPa 0,0 l/m² 0 min 0 min 0 W/m² 29,0 km/h (5 Bft) 95,74 %
13.02.2026 04:48 5,6 °C 5,0 °C 2,2 °C 90 % 991,0 hPa 0,0 l/m² 0 min 0 min 0 W/m² 12,9 km/h (3 Bft) 95,74 %
13.02.2026 04:50 5,6 °C 5,0 °C 2,2 °C 90 % 991,1 hPa 0,0 l/m² 0 min 0 min 0 W/m² 35,4 km/h (5 Bft) 94,00 %
13.02.2026 04:52 5,6 °C 5,0 °C 2,2 °C 90 % 990,9 hPa 0,0 l/m² 0 min 0 min 0 W/m² 25,7 km/h (4 Bft) 94,44 %
13.02.2026 04:54 5,6 °C 5,0 °C 2,2 °C 90 % 991,0 hPa 0,0 l/m² 0 min 0 min 0 W/m² 19,3 km/h (3 Bft) 91,49 %
13.02.2026 04:56 5,6 °C 5,0 °C 2,2 °C 90 % 991,0 hPa 0,0 l/m² 0 min 0 min 0 W/m² 19,3 km/h (3 Bft) 95,74 %
13.02.2026 04:58 5,6 °C 5,0 °C 2,2 °C 90 % 991,0 hPa 0,0 l/m² 0 min 0 min 0 W/m² 19,3 km/h (3 Bft) 95,74 %
13.02.2026 05:00 5,6 °C 5,0 °C 2,2 °C 89 % 991,0 hPa 0,0 l/m² 0 min 0 min 0 W/m² 19,3 km/h (3 Bft) 95,74 %
13.02.2026 05:02 5,6 °C 5,0 °C 1,7 °C 90 % 991,1 hPa 0,0 l/m² 0 min 0 min 0 W/m² 12,9 km/h (3 Bft) 95,65 %
13.02.2026 05:04 5,6 °C 5,0 °C 1,7 °C 90 % 991,0 hPa 0,0 l/m² 0 min 0 min 0 W/m² 25,7 km/h (4 Bft) 96,15 %
13.02.2026 05:06 5,6 °C 5,0 °C 1,7 °C 90 % 991,0 hPa 0,0 l/m² 0 min 0 min 0 W/m² 16,1 km/h (3 Bft) 97,87 %
13.02.2026 05:08 5,6 °C 5,0 °C 1,7 °C 90 % 991,1 hPa 0,0 l/m² 0 min 0 min 0 W/m² 12,9 km/h (3 Bft) 93,75 %
13.02.2026 05:10 5,6 °C 5,0 °C 1,7 °C 90 % 991,1 hPa 0,0 l/m² 0 min 0 min 0 W/m² 19,3 km/h (3 Bft) 97,87 %
13.02.2026 05:12 5,6 °C 5,0 °C 1,7 °C 90 % 991,1 hPa 0,0 l/m² 0 min 0 min 0 W/m² 19,3 km/h (3 Bft) 97,87 %
13.02.2026 05:14 5,6 °C 5,0 °C 1,7 °C 90 % 991,1 hPa 0,0 l/m² 0 min 0 min 0 W/m² 19,3 km/h (3 Bft) 95,74 %
13.02.2026 05:16 5,6 °C 5,0 °C 1,7 °C 90 % 991,1 hPa 0,0 l/m² 0 min 0 min 0 W/m² 16,1 km/h (3 Bft) 95,74 %
13.02.2026 05:18 5,6 °C 5,0 °C 1,7 °C 90 % 991,1 hPa 0,0 l/m² 0 min 0 min 0 W/m² 12,9 km/h (3 Bft) 91,49 %
13.02.2026 05:20 5,6 °C 5,0 °C 1,7 °C 90 % 991,2 hPa 0,0 l/m² 0 min 0 min 0 W/m² 19,3 km/h (3 Bft) 95,74 %
13.02.2026 05:22 5,5 °C 5,0 °C 1,7 °C 90 % 991,2 hPa 0,0 l/m² 0 min 0 min 0 W/m² 9,7 km/h (2 Bft) 47,62 %
13.02.2026 05:24 5,5 °C 5,0 °C 1,7 °C 90 % 991,2 hPa 0,0 l/m² 0 min 0 min 0 W/m² 16,1 km/h (3 Bft) 92,86 %
13.02.2026 05:26 5,5 °C 5,0 °C 1,7 °C 90 % 991,3 hPa 0,0 l/m² 0 min 0 min 0 W/m² 12,9 km/h (3 Bft) 95,74 %
13.02.2026 05:28 5,5 °C 5,0 °C 1,7 °C 90 % 991,4 hPa 0,0 l/m² 0 min 0 min 0 W/m² 16,1 km/h (3 Bft) 95,65 %
13.02.2026 05:30 5,5 °C 5,0 °C 1,7 °C 90 % 991,4 hPa 0,0 l/m² 0 min 0 min 0 W/m² 16,1 km/h (3 Bft) 95,74 %
13.02.2026 05:36 5,5 °C 5,0 °C 1,7 °C 90 % 991,4 hPa 0,0 l/m² 0 min 0 min 0 W/m² 16,1 km/h (3 Bft) 100,00 %
13.02.2026 05:38 5,5 °C 5,0 °C 1,7 °C 90 % 991,4 hPa 0,0 l/m² 0 min 0 min 0 W/m² 12,9 km/h (3 Bft) 94,29 %
13.02.2026 05:40 5,5 °C 5,0 °C 1,7 °C 90 % 991,4 hPa 0,0 l/m² 0 min 0 min 0 W/m² 12,9 km/h (3 Bft) 97,87 %
13.02.2026 05:42 5,5 °C 5,0 °C 1,7 °C 90 % 991,4 hPa 0,0 l/m² 0 min 0 min 0 W/m² 9,7 km/h (2 Bft) 97,87 %
13.02.2026 05:44 5,5 °C 5,0 °C 1,7 °C 90 % 991,5 hPa 0,0 l/m² 0 min 0 min 0 W/m² 12,9 km/h (3 Bft) 97,87 %
13.02.2026 05:46 5,5 °C 5,0 °C 1,7 °C 90 % 991,4 hPa 0,0 l/m² 0 min 0 min 0 W/m² 6,4 km/h (2 Bft) 97,87 %
13.02.2026 05:48 5,5 °C 5,0 °C 1,7 °C 91 % 991,4 hPa 0,0 l/m² 0 min 0 min 0 W/m² 6,4 km/h (2 Bft) 97,87 %
13.02.2026 05:50 5,5 °C 5,0 °C 1,7 °C 90 % 991,5 hPa 0,0 l/m² 0 min 0 min 0 W/m² 6,4 km/h (2 Bft) 97,83 %
13.02.2026 05:52 5,5 °C 5,0 °C 1,7 °C 90 % 991,5 hPa 0,0 l/m² 0 min 0 min 0 W/m² 6,4 km/h (2 Bft) 97,87 %
13.02.2026 05:54 5,5 °C 5,0 °C 1,7 °C 90 % 991,5 hPa 0,0 l/m² 0 min 0 min 0 W/m² 6,4 km/h (2 Bft) 100,00 %
13.02.2026 05:56 5,4 °C 5,0 °C 1,7 °C 90 % 991,4 hPa 0,0 l/m² 0 min 0 min 0 W/m² 12,9 km/h (3 Bft) 97,87 %
13.02.2026 05:58 5,4 °C 5,0 °C 1,7 °C 91 % 991,4 hPa 0,0 l/m² 0 min 0 min 0 W/m² 9,7 km/h (2 Bft) 100,00 %
13.02.2026 06:00 5,4 °C 5,0 °C 1,7 °C 91 % 991,4 hPa 0,0 l/m² 0 min 0 min 0 W/m² 16,1 km/h (3 Bft) 100,00 %
13.02.2026 06:02 5,4 °C 5,0 °C 1,7 °C 91 % 991,4 hPa 0,0 l/m² 0 min 0 min 0 W/m² 12,9 km/h (3 Bft) 100,00 %
13.02.2026 06:04 5,4 °C 5,0 °C 1,7 °C 91 % 991,4 hPa 0,0 l/m² 0 min 0 min 0 W/m² 12,9 km/h (3 Bft) 100,00 %
13.02.2026 06:07 5,4 °C 5,0 °C 1,7 °C 91 % 991,4 hPa 0,0 l/m² 0 min 0 min 0 W/m² 16,1 km/h (3 Bft) 97,44 %
13.02.2026 06:08 5,4 °C 5,0 °C 1,7 °C 91 % 991,4 hPa 0,0 l/m² 0 min 0 min 0 W/m² 9,7 km/h (2 Bft) 100,00 %
13.02.2026 06:12 5,4 °C 5,0 °C 1,7 °C 90 % 991,4 hPa 0,0 l/m² 0 min 0 min 0 W/m² 16,1 km/h (3 Bft) 100,00 %
13.02.2026 06:14 5,4 °C 5,0 °C 1,7 °C 90 % 991,4 hPa 0,0 l/m² 0 min 0 min 0 W/m² 16,1 km/h (3 Bft) 97,87 %
13.02.2026 06:16 5,4 °C 5,0 °C 1,7 °C 90 % 991,4 hPa 0,0 l/m² 0 min 0 min 0 W/m² 12,9 km/h (3 Bft) 100,00 %
13.02.2026 06:18 5,4 °C 5,0 °C 1,7 °C 90 % 991,3 hPa 0,0 l/m² 0 min 0 min 0 W/m² 12,9 km/h (3 Bft) 97,87 %
13.02.2026 06:20 5,4 °C 5,0 °C 1,7 °C 90 % 991,4 hPa 0,0 l/m² 0 min 0 min 0 W/m² 19,3 km/h (3 Bft) 100,00 %
13.02.2026 06:22 5,4 °C 5,0 °C 1,7 °C 90 % 991,3 hPa 0,0 l/m² 0 min 0 min 0 W/m² 12,9 km/h (3 Bft) 100,00 %
13.02.2026 06:24 5,4 °C 5,0 °C 1,7 °C 90 % 991,3 hPa 0,0 l/m² 0 min 0 min 0 W/m² 12,9 km/h (3 Bft) 100,00 %
13.02.2026 06:26 5,4 °C 5,0 °C 1,7 °C 90 % 991,3 hPa 0,0 l/m² 0 min 0 min 0 W/m² 12,9 km/h (3 Bft) 100,00 %
13.02.2026 06:28 5,4 °C 5,0 °C 1,7 °C 90 % 991,3 hPa 0,0 l/m² 0 min 0 min 0 W/m² 6,4 km/h (2 Bft) 100,00 %
13.02.2026 06:30 5,4 °C 5,0 °C 1,7 °C 90 % 991,3 hPa 0,0 l/m² 0 min 0 min 0 W/m² 9,7 km/h (2 Bft) 100,00 %
13.02.2026 06:32 5,4 °C 5,0 °C 1,7 °C 90 % 991,3 hPa 0,0 l/m² 0 min 0 min 0 W/m² 6,4 km/h (2 Bft) 100,00 %
13.02.2026 06:34 5,4 °C 5,0 °C 1,7 °C 90 % 991,2 hPa 0,0 l/m² 0 min 0 min 0 W/m² 12,9 km/h (3 Bft) 100,00 %
13.02.2026 06:36 5,4 °C 5,0 °C 1,7 °C 90 % 991,3 hPa 0,0 l/m² 0 min 0 min 0 W/m² 12,9 km/h (3 Bft) 100,00 %
13.02.2026 06:38 5,4 °C 5,0 °C 1,7 °C 90 % 991,3 hPa 0,0 l/m² 0 min 0 min 0 W/m² 12,9 km/h (3 Bft) 95,74 %
13.02.2026 06:40 5,4 °C 5,0 °C 1,7 °C 90 % 991,3 hPa 0,0 l/m² 0 min 0 min 0 W/m² 16,1 km/h (3 Bft) 100,00 %
13.02.2026 06:42 5,4 °C 5,0 °C 1,7 °C 90 % 991,3 hPa 0,0 l/m² 0 min 0 min 0 W/m² 16,1 km/h (3 Bft) 100,00 %
13.02.2026 06:44 5,4 °C 5,0 °C 1,7 °C 91 % 991,3 hPa 0,0 l/m² 0 min 0 min 0 W/m² 16,1 km/h (3 Bft) 100,00 %
13.02.2026 06:46 5,4 °C 5,0 °C 1,7 °C 91 % 991,3 hPa 0,0 l/m² 0 min 0 min 0 W/m² 12,9 km/h (3 Bft) 95,74 %
13.02.2026 06:48 5,4 °C 5,0 °C 1,7 °C 91 % 991,3 hPa 0,0 l/m² 0 min 0 min 0 W/m² 6,4 km/h (2 Bft) 100,00 %
13.02.2026 06:50 5,4 °C 5,0 °C 1,7 °C 91 % 991,3 hPa 0,0 l/m² 0 min 0 min 0 W/m² 12,9 km/h (3 Bft) 100,00 %
13.02.2026 06:52 5,4 °C 5,0 °C 1,7 °C 90 % 991,4 hPa 0,0 l/m² 0 min 0 min 0 W/m² 12,9 km/h (3 Bft) 100,00 %
13.02.2026 06:54 5,4 °C 5,0 °C 1,7 °C 90 % 991,4 hPa 0,0 l/m² 0 min 0 min 0 W/m² 16,1 km/h (3 Bft) 100,00 %
13.02.2026 06:56 5,4 °C 5,0 °C 1,7 °C 90 % 991,4 hPa 0,0 l/m² 0 min 0 min 0 W/m² 12,9 km/h (3 Bft) 100,00 %
13.02.2026 06:58 5,4 °C 5,0 °C 1,7 °C 90 % 991,4 hPa 0,0 l/m² 0 min 0 min 0 W/m² 12,9 km/h (3 Bft) 100,00 %
13.02.2026 07:00 5,4 °C 5,0 °C 1,7 °C 90 % 991,4 hPa 0,0 l/m² 0 min 0 min 0 W/m² 12,9 km/h (3 Bft) 97,87 %
13.02.2026 07:02 5,4 °C 5,0 °C 1,7 °C 90 % 991,4 hPa 0,0 l/m² 0 min 0 min 0 W/m² 9,7 km/h (2 Bft) 100,00 %
13.02.2026 07:04 5,4 °C 5,0 °C 1,7 °C 90 % 991,4 hPa 0,0 l/m² 0 min 0 min 0 W/m² 9,7 km/h (2 Bft) 100,00 %
13.02.2026 07:06 5,4 °C 5,0 °C 1,7 °C 90 % 991,4 hPa 0,0 l/m² 0 min 0 min 0 W/m² 12,9 km/h (3 Bft) 97,87 %
13.02.2026 07:08 5,4 °C 5,0 °C 1,7 °C 90 % 991,4 hPa 0,0 l/m² 0 min 0 min 0 W/m² 6,4 km/h (2 Bft) 100,00 %
13.02.2026 07:10 5,4 °C 5,0 °C 1,7 °C 90 % 991,4 hPa 0,0 l/m² 0 min 0 min 0 W/m² 3,2 km/h (1 Bft) 95,74 %
13.02.2026 07:12 5,4 °C 5,0 °C 1,7 °C 90 % 991,4 hPa 0,0 l/m² 0 min 0 min 0 W/m² 9,7 km/h (2 Bft) 97,83 %
13.02.2026 07:14 5,4 °C 5,0 °C 1,7 °C 90 % 991,5 hPa 0,0 l/m² 0 min 0 min 0 W/m² 12,9 km/h (3 Bft) 95,74 %
13.02.2026 07:16 5,4 °C 5,0 °C 1,7 °C 90 % 991,5 hPa 0,0 l/m² 0 min 0 min 0 W/m² 6,4 km/h (2 Bft) 97,87 %
13.02.2026 07:18 5,4 °C 5,0 °C 1,7 °C 91 % 991,5 hPa 0,0 l/m² 0 min 0 min 0 W/m² 6,4 km/h (2 Bft) 93,62 %
13.02.2026 07:20 5,4 °C 5,0 °C 1,7 °C 91 % 991,5 hPa 0,0 l/m² 0 min 0 min 0 W/m² 6,4 km/h (2 Bft) 95,74 %
13.02.2026 07:22 5,4 °C 5,0 °C 1,7 °C 91 % 991,5 hPa 0,0 l/m² 0 min 0 min 0 W/m² 6,4 km/h (2 Bft) 95,74 %
13.02.2026 07:24 5,4 °C 5,0 °C 1,7 °C 91 % 991,5 hPa 0,0 l/m² 0 min 0 min 0 W/m² 3,2 km/h (1 Bft) 91,49 %
13.02.2026 07:26 5,4 °C 5,0 °C 1,7 °C 91 % 991,5 hPa 0,0 l/m² 0 min 0 min 0 W/m² 0,0 km/h (0 Bft) 93,62 %
13.02.2026 07:28 5,4 °C 5,0 °C 1,7 °C 91 % 991,5 hPa 0,0 l/m² 0 min 0 min 0 W/m² 0,0 km/h (0 Bft) 87,23 %
13.02.2026 07:30 5,4 °C 5,0 °C 1,7 °C 91 % 991,5 hPa 0,0 l/m² 0 min 0 min 0 W/m² 0,0 km/h (0 Bft) 95,74 %
13.02.2026 07:32 5,4 °C 5,0 °C 1,7 °C 91 % 991,5 hPa 0,0 l/m² 0 min 0 min 0 W/m² 0,0 km/h (0 Bft) 93,62 %
13.02.2026 07:34 5,4 °C 5,0 °C 1,7 °C 91 % 991,5 hPa 0,0 l/m² 0 min 0 min 0 W/m² 0,0 km/h (0 Bft) 95,65 %
13.02.2026 07:36 5,4 °C 5,0 °C 1,7 °C 91 % 991,6 hPa 0,0 l/m² 0 min 0 min 0 W/m² 0,0 km/h (0 Bft) 91,49 %
13.02.2026 07:38 5,4 °C 5,0 °C 1,7 °C 91 % 991,7 hPa 0,0 l/m² 0 min 0 min 0 W/m² 6,4 km/h (2 Bft) 93,62 %
13.02.2026 07:40 5,3 °C 4,4 °C 1,7 °C 91 % 991,7 hPa 0,0 l/m² 0 min 0 min 0 W/m² 9,7 km/h (2 Bft) 95,74 %
13.02.2026 07:42 5,3 °C 4,4 °C 1,7 °C 91 % 991,7 hPa 0,0 l/m² 0 min 0 min 0 W/m² 6,4 km/h (2 Bft) 94,29 %
13.02.2026 07:44 5,3 °C 4,4 °C 1,7 °C 91 % 991,8 hPa 0,0 l/m² 0 min 0 min 0 W/m² 16,1 km/h (3 Bft) 95,74 %
13.02.2026 07:46 5,3 °C 4,4 °C 1,7 °C 91 % 991,7 hPa 0,0 l/m² 0 min 0 min 0 W/m² 12,9 km/h (3 Bft) 91,49 %
13.02.2026 07:48 5,3 °C 4,4 °C 1,1 °C 91 % 991,8 hPa 0,0 l/m² 0 min 0 min 0 W/m² 9,7 km/h (2 Bft) 95,74 %
13.02.2026 07:53 5,2 °C 4,4 °C 1,1 °C 91 % 991,9 hPa 0,0 l/m² 0 min 0 min 0 W/m² 16,1 km/h (3 Bft) 97,30 %
13.02.2026 07:54 5,2 °C 4,4 °C 1,1 °C 91 % 991,9 hPa 0,0 l/m² 0 min 0 min 0 W/m² 9,7 km/h (2 Bft) 100,00 %
13.02.2026 07:56 5,1 °C 4,4 °C 1,1 °C 91 % 991,9 hPa 0,0 l/m² 0 min 0 min 0 W/m² 6,4 km/h (2 Bft) 95,74 %
13.02.2026 07:58 5,1 °C 4,4 °C 1,1 °C 91 % 991,9 hPa 0,0 l/m² 0 min 0 min 0 W/m² 12,9 km/h (3 Bft) 93,62 %
13.02.2026 08:00 5,1 °C 4,4 °C 1,1 °C 91 % 992,0 hPa 0,0 l/m² 0 min 0 min 0 W/m² 12,9 km/h (3 Bft) 95,74 %
13.02.2026 08:02 5,1 °C 4,4 °C 1,1 °C 91 % 992,0 hPa 0,0 l/m² 0 min 0 min 0 W/m² 12,9 km/h (3 Bft) 95,74 %
13.02.2026 08:04 5,0 °C 3,9 °C 1,1 °C 92 % 992,0 hPa 0,0 l/m² 0 min 0 min 0 W/m² 16,1 km/h (3 Bft) 93,75 %
13.02.2026 08:06 4,9 °C 3,9 °C 1,1 °C 91 % 992,1 hPa 0,0 l/m² 0 min 0 min 0 W/m² 6,4 km/h (2 Bft) 93,22 %
13.02.2026 08:08 4,9 °C 3,9 °C 1,1 °C 92 % 992,1 hPa 0,0 l/m² 0 min 0 min 2 W/m² 9,7 km/h (2 Bft) 94,29 %
13.02.2026 08:10 4,9 °C 3,9 °C 1,1 °C 92 % 992,1 hPa 0,0 l/m² 0 min 0 min 5 W/m² 6,4 km/h (2 Bft) 100,00 %
13.02.2026 08:12 4,8 °C 3,9 °C 1,1 °C 92 % 992,1 hPa 0,0 l/m² 0 min 0 min 6 W/m² 6,4 km/h (2 Bft) 100,00 %
13.02.2026 08:14 4,8 °C 3,9 °C 1,1 °C 92 % 992,1 hPa 0,0 l/m² 0 min 0 min 8 W/m² 6,4 km/h (2 Bft) 97,87 %
13.02.2026 08:16 4,8 °C 3,9 °C 1,1 °C 92 % 992,1 hPa 0,0 l/m² 0 min 0 min 11 W/m² 6,4 km/h (2 Bft) 100,00 %
13.02.2026 08:18 4,8 °C 3,9 °C 1,1 °C 92 % 992,1 hPa 0,0 l/m² 0 min 0 min 10 W/m² 12,9 km/h (3 Bft) 95,74 %
13.02.2026 08:20 4,8 °C 3,9 °C 1,1 °C 92 % 992,2 hPa 0,0 l/m² 0 min 0 min 11 W/m² 6,4 km/h (2 Bft) 100,00 %
13.02.2026 08:22 4,8 °C 3,9 °C 1,1 °C 92 % 992,2 hPa 0,0 l/m² 0 min 0 min 11 W/m² 9,7 km/h (2 Bft) 100,00 %
13.02.2026 08:24 4,7 °C 3,9 °C 1,1 °C 92 % 992,2 hPa 0,0 l/m² 0 min 0 min 12 W/m² 6,4 km/h (2 Bft) 97,87 %
13.02.2026 08:26 4,7 °C 4,4 °C 1,1 °C 92 % 992,3 hPa 0,0 l/m² 0 min 0 min 10 W/m² 6,4 km/h (2 Bft) 97,87 %
13.02.2026 08:28 4,7 °C 3,9 °C 1,1 °C 92 % 992,2 hPa 0,0 l/m² 0 min 0 min 11 W/m² 9,7 km/h (2 Bft) 100,00 %
13.02.2026 08:30 4,7 °C 3,9 °C 1,1 °C 92 % 992,3 hPa 0,0 l/m² 0 min 0 min 12 W/m² 9,7 km/h (2 Bft) 100,00 %
13.02.2026 08:32 4,7 °C 3,9 °C 1,1 °C 93 % 992,2 hPa 0,0 l/m² 0 min 0 min 12 W/m² 6,4 km/h (2 Bft) 100,00 %
13.02.2026 08:34 4,6 °C 3,9 °C 1,1 °C 93 % 992,3 hPa 0,0 l/m² 0 min 0 min 17 W/m² 9,7 km/h (2 Bft) 100,00 %
13.02.2026 08:36 4,6 °C 3,9 °C 1,1 °C 93 % 992,3 hPa 0,0 l/m² 0 min 0 min 18 W/m² 6,4 km/h (2 Bft) 100,00 %
13.02.2026 08:38 4,6 °C 3,9 °C 1,1 °C 93 % 992,3 hPa 0,0 l/m² 0 min 0 min 19 W/m² 6,4 km/h (2 Bft) 100,00 %
13.02.2026 08:40 4,6 °C 4,4 °C 1,1 °C 93 % 992,3 hPa 0,0 l/m² 0 min 0 min 19 W/m² 6,4 km/h (2 Bft) 95,74 %
13.02.2026 08:42 4,6 °C 4,4 °C 1,1 °C 93 % 992,3 hPa 0,0 l/m² 0 min 0 min 20 W/m² 9,7 km/h (2 Bft) 100,00 %
13.02.2026 08:44 4,6 °C 3,9 °C 1,1 °C 93 % 992,3 hPa 0,0 l/m² 0 min 0 min 21 W/m² 6,4 km/h (2 Bft) 100,00 %
13.02.2026 08:46 4,6 °C 3,9 °C 1,1 °C 93 % 992,3 hPa 0,0 l/m² 0 min 0 min 19 W/m² 6,4 km/h (2 Bft) 97,87 %
13.02.2026 08:48 4,6 °C 3,9 °C 1,1 °C 93 % 992,3 hPa 0,0 l/m² 0 min 0 min 22 W/m² 12,9 km/h (3 Bft) 97,87 %
13.02.2026 08:50 4,6 °C 4,4 °C 1,1 °C 93 % 992,3 hPa 0,0 l/m² 0 min 0 min 31 W/m² 6,4 km/h (2 Bft) 97,87 %
13.02.2026 08:52 4,5 °C 4,4 °C 1,1 °C 93 % 992,3 hPa 0,0 l/m² 0 min 0 min 31 W/m² 6,4 km/h (2 Bft) 97,87 %
13.02.2026 08:54 4,5 °C 4,4 °C 1,1 °C 93 % 992,3 hPa 0,0 l/m² 0 min 0 min 26 W/m² 9,7 km/h (2 Bft) 97,87 %
13.02.2026 08:56 4,5 °C 4,4 °C 1,1 °C 93 % 992,3 hPa 0,0 l/m² 0 min 0 min 27 W/m² 3,2 km/h (1 Bft) 100,00 %
13.02.2026 08:58 4,5 °C 4,4 °C 1,1 °C 93 % 992,3 hPa 0,0 l/m² 0 min 0 min 28 W/m² 6,4 km/h (2 Bft) 100,00 %
13.02.2026 09:00 4,4 °C 4,4 °C 1,1 °C 93 % 992,3 hPa 0,0 l/m² 0 min 0 min 29 W/m² 9,7 km/h (2 Bft) 97,87 %
13.02.2026 09:02 4,4 °C 4,4 °C 1,1 °C 93 % 992,3 hPa 0,0 l/m² 0 min 0 min 34 W/m² 6,4 km/h (2 Bft) 93,48 %
13.02.2026 09:04 4,4 °C 4,4 °C 1,1 °C 93 % 992,3 hPa 0,0 l/m² 0 min 0 min 39 W/m² 12,9 km/h (3 Bft) 97,92 %
13.02.2026 09:06 4,4 °C 4,4 °C 1,1 °C 93 % 992,3 hPa 0,0 l/m² 0 min 0 min 41 W/m² 12,9 km/h (3 Bft) 95,74 %
13.02.2026 09:08 4,4 °C 4,4 °C 1,1 °C 93 % 992,3 hPa 0,0 l/m² 0 min 0 min 45 W/m² 6,4 km/h (2 Bft) 95,74 %
13.02.2026 09:10 4,4 °C 4,4 °C 1,1 °C 93 % 992,3 hPa 0,0 l/m² 0 min 0 min 46 W/m² 9,7 km/h (2 Bft) 97,87 %
13.02.2026 09:12 4,4 °C 4,4 °C 1,1 °C 93 % 992,3 hPa 0,0 l/m² 0 min 0 min 46 W/m² 9,7 km/h (2 Bft) 97,87 %
13.02.2026 09:14 4,4 °C 4,4 °C 1,1 °C 93 % 992,3 hPa 0,0 l/m² 0 min 0 min 43 W/m² 9,7 km/h (2 Bft) 97,87 %
13.02.2026 09:16 4,4 °C 4,4 °C 1,1 °C 93 % 992,4 hPa 0,0 l/m² 0 min 0 min 56 W/m² 6,4 km/h (2 Bft) 97,87 %
13.02.2026 09:18 4,4 °C 4,4 °C 1,1 °C 93 % 992,4 hPa 0,0 l/m² 0 min 0 min 62 W/m² 6,4 km/h (2 Bft) 97,87 %
13.02.2026 09:20 4,4 °C 4,4 °C 1,1 °C 93 % 992,4 hPa 0,0 l/m² 0 min 0 min 59 W/m² 9,7 km/h (2 Bft) 95,74 %
13.02.2026 09:22 4,4 °C 4,4 °C 1,1 °C 93 % 992,4 hPa 0,0 l/m² 0 min 0 min 61 W/m² 12,9 km/h (3 Bft) 97,83 %
13.02.2026 09:24 4,4 °C 4,4 °C 1,1 °C 92 % 992,4 hPa 0,0 l/m² 0 min 0 min 63 W/m² 9,7 km/h (2 Bft) 97,87 %
13.02.2026 09:26 4,4 °C 5,0 °C 1,7 °C 92 % 992,4 hPa 0,0 l/m² 0 min 0 min 77 W/m² 6,4 km/h (2 Bft) 97,87 %
13.02.2026 09:28 4,4 °C 5,0 °C 1,7 °C 92 % 992,4 hPa 0,0 l/m² 0 min 0 min 72 W/m² 3,2 km/h (1 Bft) 97,87 %
13.02.2026 09:30 4,4 °C 4,4 °C 1,7 °C 92 % 992,4 hPa 0,0 l/m² 0 min 0 min 61 W/m² 12,9 km/h (3 Bft) 97,87 %
13.02.2026 09:32 4,4 °C 4,4 °C 1,1 °C 92 % 992,4 hPa 0,0 l/m² 0 min 0 min 59 W/m² 6,4 km/h (2 Bft) 100,00 %
13.02.2026 09:34 4,4 °C 4,4 °C 1,7 °C 92 % 992,4 hPa 0,0 l/m² 0 min 0 min 55 W/m² 6,4 km/h (2 Bft) 97,87 %
13.02.2026 09:36 4,4 °C 4,4 °C 1,7 °C 92 % 992,4 hPa 0,0 l/m² 0 min 0 min 59 W/m² 9,7 km/h (2 Bft) 100,00 %
13.02.2026 09:38 4,4 °C 4,4 °C 1,7 °C 92 % 992,5 hPa 0,0 l/m² 0 min 0 min 61 W/m² 12,9 km/h (3 Bft) 100,00 %
13.02.2026 09:40 4,5 °C 5,0 °C 1,7 °C 92 % 992,5 hPa 0,0 l/m² 0 min 0 min 64 W/m² 9,7 km/h (2 Bft) 100,00 %
13.02.2026 09:42 4,5 °C 5,0 °C 1,7 °C 91 % 992,5 hPa 0,0 l/m² 0 min 0 min 71 W/m² 6,4 km/h (2 Bft) 82,98 %
13.02.2026 09:44 4,5 °C 5,0 °C 1,7 °C 91 % 992,5 hPa 0,0 l/m² 0 min 0 min 71 W/m² 9,7 km/h (2 Bft) 53,57 %
13.02.2026 09:46 4,6 °C 5,0 °C 1,7 °C 91 % 992,5 hPa 0,0 l/m² 0 min 0 min 72 W/m² 6,4 km/h (2 Bft) 100,00 %
13.02.2026 09:48 4,6 °C 5,0 °C 1,7 °C 91 % 992,5 hPa 0,0 l/m² 0 min 0 min 76 W/m² 6,4 km/h (2 Bft) 100,00 %
13.02.2026 09:50 4,6 °C 5,0 °C 1,7 °C 91 % 992,6 hPa 0,0 l/m² 0 min 0 min 78 W/m² 6,4 km/h (2 Bft) 97,83 %
13.02.2026 09:52 4,6 °C 5,0 °C 1,7 °C 91 % 992,6 hPa 0,0 l/m² 0 min 0 min 76 W/m² 0,0 km/h (0 Bft) 97,87 %
13.02.2026 09:54 4,6 °C 5,0 °C 1,7 °C 91 % 992,7 hPa 0,0 l/m² 0 min 0 min 82 W/m² 9,7 km/h (2 Bft) 100,00 %
13.02.2026 09:56 4,7 °C 5,0 °C 1,7 °C 91 % 992,7 hPa 0,0 l/m² 0 min 0 min 84 W/m² 6,4 km/h (2 Bft) 100,00 %
13.02.2026 09:58 4,7 °C 5,0 °C 1,7 °C 91 % 992,7 hPa 0,0 l/m² 0 min 0 min 81 W/m² 12,9 km/h (3 Bft) 100,00 %
13.02.2026 10:00 4,7 °C 5,0 °C 1,7 °C 91 % 992,7 hPa 0,0 l/m² 0 min 0 min 77 W/m² 12,9 km/h (3 Bft) 97,87 %
13.02.2026 10:02 4,7 °C 5,0 °C 1,7 °C 91 % 992,7 hPa 0,0 l/m² 0 min 0 min 80 W/m² 6,4 km/h (2 Bft) 100,00 %
13.02.2026 10:04 4,7 °C 5,0 °C 1,7 °C 91 % 992,7 hPa 0,0 l/m² 0 min 0 min 78 W/m² 9,7 km/h (2 Bft) 97,92 %
13.02.2026 10:06 4,8 °C 5,0 °C 1,7 °C 91 % 992,7 hPa 0,0 l/m² 0 min 0 min 78 W/m² 6,4 km/h (2 Bft) 97,87 %
13.02.2026 10:08 4,7 °C 5,0 °C 1,7 °C 91 % 992,7 hPa 0,0 l/m² 0 min 0 min 80 W/m² 3,2 km/h (1 Bft) 97,87 %
13.02.2026 10:10 4,8 °C 5,0 °C 1,7 °C 91 % 992,7 hPa 0,0 l/m² 0 min 0 min 83 W/m² 3,2 km/h (1 Bft) 97,87 %
13.02.2026 10:12 4,8 °C 5,0 °C 1,7 °C 91 % 992,7 hPa 0,0 l/m² 0 min 0 min 88 W/m² 6,4 km/h (2 Bft) 97,87 %
13.02.2026 10:14 4,8 °C 5,0 °C 1,7 °C 90 % 992,7 hPa 0,0 l/m² 0 min 0 min 89 W/m² 6,4 km/h (2 Bft) 97,83 %
13.02.2026 10:16 4,8 °C 5,0 °C 1,7 °C 90 % 992,7 hPa 0,0 l/m² 0 min 0 min 92 W/m² 6,4 km/h (2 Bft) 95,74 %
13.02.2026 10:18 4,8 °C 5,0 °C 1,7 °C 90 % 992,7 hPa 0,0 l/m² 0 min 0 min 90 W/m² 3,2 km/h (1 Bft) 97,87 %
13.02.2026 10:20 4,8 °C 5,0 °C 1,7 °C 90 % 992,8 hPa 0,0 l/m² 0 min 0 min 90 W/m² 3,2 km/h (1 Bft) 95,74 %
13.02.2026 10:22 4,8 °C 5,0 °C 1,7 °C 90 % 992,8 hPa 0,0 l/m² 0 min 0 min 89 W/m² 3,2 km/h (1 Bft) 93,62 %
13.02.2026 10:24 4,8 °C 5,0 °C 1,7 °C 90 % 992,9 hPa 0,0 l/m² 0 min 0 min 95 W/m² 9,7 km/h (2 Bft) 95,74 %
13.02.2026 10:26 4,9 °C 5,6 °C 2,2 °C 90 % 992,9 hPa 0,0 l/m² 0 min 0 min 99 W/m² 3,2 km/h (1 Bft) 95,74 %
13.02.2026 10:28 4,9 °C 5,6 °C 2,2 °C 90 % 992,9 hPa 0,0 l/m² 0 min 0 min 107 W/m² 3,2 km/h (1 Bft) 91,49 %
13.02.2026 10:30 4,9 °C 5,6 °C 2,2 °C 90 % 993,0 hPa 0,0 l/m² 0 min 0 min 121 W/m² 6,4 km/h (2 Bft) 95,74 %
13.02.2026 10:32 4,9 °C 5,6 °C 2,2 °C 90 % 993,0 hPa 0,0 l/m² 0 min 0 min 110 W/m² 3,2 km/h (1 Bft) 95,74 %
13.02.2026 10:34 4,9 °C 5,6 °C 2,2 °C 90 % 993,0 hPa 0,0 l/m² 0 min 0 min 100 W/m² 3,2 km/h (1 Bft) 93,62 %
13.02.2026 10:36 5,0 °C 5,6 °C 2,2 °C 90 % 993,0 hPa 0,0 l/m² 0 min 0 min 113 W/m² 3,2 km/h (1 Bft) 93,48 %
13.02.2026 10:38 5,0 °C 5,6 °C 2,2 °C 90 % 993,0 hPa 0,0 l/m² 0 min 0 min 126 W/m² 3,2 km/h (1 Bft) 95,74 %
13.02.2026 10:40 5,1 °C 6,1 °C 2,2 °C 89 % 993,0 hPa 0,0 l/m² 0 min 0 min 141 W/m² 3,2 km/h (1 Bft) 95,74 %
13.02.2026 10:42 5,1 °C 6,1 °C 2,2 °C 89 % 992,9 hPa 0,0 l/m² 0 min 0 min 141 W/m² 6,4 km/h (2 Bft) 91,49 %
13.02.2026 10:44 5,1 °C 6,1 °C 2,2 °C 89 % 992,9 hPa 0,0 l/m² 0 min 0 min 142 W/m² 3,2 km/h (1 Bft) 95,74 %
13.02.2026 10:46 5,2 °C 6,1 °C 2,2 °C 89 % 992,9 hPa 0,0 l/m² 0 min 0 min 138 W/m² 3,2 km/h (1 Bft) 91,49 %
13.02.2026 10:48 5,2 °C 6,7 °C 2,2 °C 90 % 993,0 hPa 0,0 l/m² 0 min 0 min 142 W/m² 6,4 km/h (2 Bft) 95,74 %
13.02.2026 10:50 5,3 °C 6,7 °C 2,2 °C 89 % 993,0 hPa 0,0 l/m² 0 min 0 min 158 W/m² 3,2 km/h (1 Bft) 95,74 %
13.02.2026 10:52 5,3 °C 6,7 °C 2,8 °C 89 % 993,0 hPa 0,0 l/m² 0 min 0 min 169 W/m² 0,0 km/h (0 Bft) 43,24 %
13.02.2026 10:54 5,4 °C 6,7 °C 2,8 °C 89 % 993,0 hPa 0,0 l/m² 0 min 0 min 164 W/m² 6,4 km/h (2 Bft) 93,62 %
13.02.2026 10:56 5,5 °C 6,7 °C 2,8 °C 89 % 993,0 hPa 0,0 l/m² 0 min 0 min 159 W/m² 3,2 km/h (1 Bft) 97,87 %
13.02.2026 10:58 5,5 °C 6,7 °C 2,8 °C 89 % 993,0 hPa 0,0 l/m² 0 min 0 min 156 W/m² 3,2 km/h (1 Bft) 95,74 %
13.02.2026 11:00 5,6 °C 6,7 °C 2,8 °C 89 % 993,1 hPa 0,0 l/m² 0 min 0 min 163 W/m² 6,4 km/h (2 Bft) 93,48 %
13.02.2026 11:02 5,6 °C 6,7 °C 2,8 °C 89 % 993,1 hPa 0,0 l/m² 0 min 0 min 143 W/m² 6,4 km/h (2 Bft) 95,74 %
13.02.2026 11:04 5,6 °C 6,7 °C 2,8 °C 89 % 993,1 hPa 0,0 l/m² 0 min 0 min 131 W/m² 3,2 km/h (1 Bft) 93,75 %
13.02.2026 11:06 5,7 °C 6,7 °C 2,8 °C 89 % 993,2 hPa 0,0 l/m² 0 min 0 min 117 W/m² 0,0 km/h (0 Bft) 93,62 %
13.02.2026 11:08 5,7 °C 6,7 °C 2,8 °C 88 % 993,2 hPa 0,0 l/m² 0 min 0 min 113 W/m² 6,4 km/h (2 Bft) 95,74 %
13.02.2026 11:10 5,7 °C 6,7 °C 2,8 °C 88 % 993,2 hPa 0,0 l/m² 0 min 0 min 106 W/m² 9,7 km/h (2 Bft) 97,14 %
13.02.2026 11:12 5,7 °C 6,7 °C 2,8 °C 89 % 993,2 hPa 0,0 l/m² 0 min 0 min 116 W/m² 9,7 km/h (2 Bft) 97,87 %
13.02.2026 11:14 5,8 °C 6,7 °C 2,8 °C 88 % 993,2 hPa 0,0 l/m² 0 min 0 min 141 W/m² 0,0 km/h (0 Bft) 97,87 %
13.02.2026 11:16 5,8 °C 6,7 °C 2,8 °C 88 % 993,1 hPa 0,0 l/m² 0 min 0 min 162 W/m² 6,4 km/h (2 Bft) 95,74 %
13.02.2026 11:18 5,8 °C 6,7 °C 2,8 °C 88 % 993,2 hPa 0,0 l/m² 0 min 0 min 171 W/m² 6,4 km/h (2 Bft) 97,87 %
13.02.2026 11:20 5,8 °C 6,7 °C 2,8 °C 88 % 993,2 hPa 0,0 l/m² 0 min 0 min 156 W/m² 3,2 km/h (1 Bft) 97,87 %
13.02.2026 11:22 5,8 °C 6,7 °C 2,8 °C 88 % 993,2 hPa 0,0 l/m² 0 min 0 min 116 W/m² 6,4 km/h (2 Bft) 95,74 %
13.02.2026 11:24 5,8 °C 6,7 °C 2,8 °C 87 % 993,3 hPa 0,0 l/m² 0 min 0 min 113 W/m² 3,2 km/h (1 Bft) 97,87 %
13.02.2026 11:26 5,8 °C 6,7 °C 2,8 °C 87 % 993,3 hPa 0,0 l/m² 0 min 0 min 112 W/m² 9,7 km/h (2 Bft) 95,65 %
13.02.2026 11:28 5,9 °C 6,7 °C 2,8 °C 87 % 993,3 hPa 0,0 l/m² 0 min 0 min 111 W/m² 9,7 km/h (2 Bft) 100,00 %
13.02.2026 11:30 5,9 °C 6,7 °C 2,8 °C 87 % 993,3 hPa 0,0 l/m² 0 min 0 min 114 W/m² 6,4 km/h (2 Bft) 100,00 %
13.02.2026 11:32 5,9 °C 6,7 °C 2,8 °C 87 % 993,3 hPa 0,0 l/m² 0 min 0 min 115 W/m² 3,2 km/h (1 Bft) 100,00 %
13.02.2026 11:34 5,9 °C 6,7 °C 2,8 °C 87 % 993,3 hPa 0,0 l/m² 0 min 0 min 106 W/m² 9,7 km/h (2 Bft) 100,00 %
13.02.2026 11:36 5,9 °C 6,7 °C 2,8 °C 87 % 993,3 hPa 0,0 l/m² 0 min 0 min 93 W/m² 6,4 km/h (2 Bft) 100,00 %
13.02.2026 11:38 6,0 °C 6,7 °C 2,8 °C 87 % 993,3 hPa 0,0 l/m² 0 min 0 min 65 W/m² 9,7 km/h (2 Bft) 97,87 %
13.02.2026 11:40 6,0 °C 6,1 °C 2,2 °C 87 % 993,3 hPa 0,0 l/m² 0 min 0 min 51 W/m² 3,2 km/h (1 Bft) 100,00 %
13.02.2026 11:42 6,0 °C 6,1 °C 2,2 °C 87 % 993,3 hPa 0,0 l/m² 0 min 0 min 54 W/m² 6,4 km/h (2 Bft) 97,87 %
13.02.2026 11:44 5,9 °C 6,1 °C 2,2 °C 87 % 993,3 hPa 0,0 l/m² 0 min 0 min 74 W/m² 3,2 km/h (1 Bft) 100,00 %
13.02.2026 11:46 5,9 °C 6,1 °C 2,2 °C 87 % 993,3 hPa 0,0 l/m² 0 min 0 min 105 W/m² 9,7 km/h (2 Bft) 100,00 %
13.02.2026 11:48 5,9 °C 6,1 °C 2,8 °C 87 % 993,3 hPa 0,0 l/m² 0 min 0 min 128 W/m² 6,4 km/h (2 Bft) 95,74 %
13.02.2026 11:50 5,9 °C 6,7 °C 2,8 °C 87 % 993,3 hPa 0,0 l/m² 0 min 0 min 147 W/m² 6,4 km/h (2 Bft) 100,00 %
13.02.2026 11:52 6,0 °C 6,7 °C 2,8 °C 87 % 993,3 hPa 0,0 l/m² 0 min 0 min 157 W/m² 12,9 km/h (3 Bft) 100,00 %
13.02.2026 11:54 6,0 °C 6,7 °C 2,8 °C 87 % 993,4 hPa 0,0 l/m² 0 min 0 min 161 W/m² 3,2 km/h (1 Bft) 100,00 %
13.02.2026 11:56 6,0 °C 7,2 °C 2,8 °C 87 % 993,3 hPa 0,0 l/m² 0 min 0 min 168 W/m² 6,4 km/h (2 Bft) 100,00 %
13.02.2026 11:58 6,0 °C 7,2 °C 2,8 °C 87 % 993,3 hPa 0,0 l/m² 0 min 0 min 162 W/m² 9,7 km/h (2 Bft) 100,00 %
13.02.2026 12:00 6,1 °C 7,2 °C 2,8 °C 87 % 993,4 hPa 0,0 l/m² 0 min 0 min 156 W/m² 12,9 km/h (3 Bft) 100,00 %
13.02.2026 12:02 6,1 °C 7,2 °C 2,8 °C 87 % 993,4 hPa 0,0 l/m² 0 min 0 min 152 W/m² 9,7 km/h (2 Bft) 100,00 %
13.02.2026 12:04 6,1 °C 7,2 °C 2,8 °C 87 % 993,5 hPa 0,0 l/m² 0 min 0 min 182 W/m² 9,7 km/h (2 Bft) 100,00 %
13.02.2026 12:07 6,1 °C 7,8 °C 2,8 °C 87 % 993,5 hPa 0,0 l/m² 3 min 0 min 221 W/m² 6,4 km/h (2 Bft) 100,00 %
13.02.2026 12:08 6,1 °C 7,8 °C 3,3 °C 87 % 993,5 hPa 0,0 l/m² 1 min 0 min 245 W/m² 6,4 km/h (2 Bft) 92,00 %
13.02.2026 12:12 6,2 °C 8,3 °C 3,3 °C 87 % 993,4 hPa 0,0 l/m² 4 min 0 min 246 W/m² 9,7 km/h (2 Bft) 100,00 %
13.02.2026 12:16 6,2 °C 8,3 °C 3,3 °C 86 % 993,4 hPa 0,0 l/m² 4 min 0 min 255 W/m² 6,4 km/h (2 Bft) 77,27 %
13.02.2026 12:18 6,3 °C 8,9 °C 3,9 °C 86 % 993,4 hPa 0,0 l/m² 2 min 0 min 305 W/m² 9,7 km/h (2 Bft) 97,87 %
13.02.2026 12:20 6,4 °C 9,4 °C 3,9 °C 86 % 993,4 hPa 0,0 l/m² 2 min 0 min 308 W/m² 9,7 km/h (2 Bft) 100,00 %
13.02.2026 12:22 6,5 °C 10,0 °C 3,9 °C 86 % 993,4 hPa 0,0 l/m² 2 min 0 min 324 W/m² 12,9 km/h (3 Bft) 97,87 %
13.02.2026 12:24 6,6 °C 10,0 °C 3,9 °C 86 % 993,4 hPa 0,0 l/m² 2 min 0 min 336 W/m² 6,4 km/h (2 Bft) 100,00 %
13.02.2026 12:26 6,6 °C 10,0 °C 3,9 °C 85 % 993,5 hPa 0,0 l/m² 2 min 0 min 313 W/m² 9,7 km/h (2 Bft) 97,87 %
13.02.2026 12:28 6,7 °C 9,4 °C 3,9 °C 85 % 993,5 hPa 0,0 l/m² 2 min 0 min 290 W/m² 6,4 km/h (2 Bft) 100,00 %
13.02.2026 12:30 6,7 °C 8,9 °C 3,9 °C 85 % 993,4 hPa 0,0 l/m² 2 min 0 min 260 W/m² 9,7 km/h (2 Bft) 100,00 %
13.02.2026 12:32 6,7 °C 8,9 °C 3,9 °C 84 % 993,4 hPa 0,0 l/m² 2 min 0 min 241 W/m² 9,7 km/h (2 Bft) 95,74 %
13.02.2026 12:34 6,7 °C 8,3 °C 3,9 °C 84 % 993,4 hPa 0,0 l/m² 2 min 0 min 256 W/m² 9,7 km/h (2 Bft) 100,00 %
13.02.2026 12:36 6,7 °C 8,3 °C 3,9 °C 84 % 993,4 hPa 0,0 l/m² 2 min 0 min 252 W/m² 6,4 km/h (2 Bft) 97,87 %
13.02.2026 12:38 6,7 °C 8,9 °C 3,9 °C 84 % 993,4 hPa 0,0 l/m² 2 min 0 min 260 W/m² 6,4 km/h (2 Bft) 100,00 %
13.02.2026 12:40 6,8 °C 9,4 °C 3,9 °C 84 % 993,4 hPa 0,0 l/m² 2 min 0 min 332 W/m² 12,9 km/h (3 Bft) 100,00 %
13.02.2026 12:42 6,8 °C 10,0 °C 4,4 °C 84 % 993,3 hPa 0,0 l/m² 2 min 0 min 382 W/m² 12,9 km/h (3 Bft) 100,00 %
13.02.2026 12:44 6,9 °C 10,0 °C 4,4 °C 84 % 993,4 hPa 0,0 l/m² 2 min 0 min 344 W/m² 12,9 km/h (3 Bft) 100,00 %
13.02.2026 12:46 7,0 °C 9,4 °C 4,4 °C 84 % 993,3 hPa 0,0 l/m² 2 min 0 min 289 W/m² 12,9 km/h (3 Bft) 100,00 %
13.02.2026 12:48 7,0 °C 9,4 °C 4,4 °C 84 % 993,3 hPa 0,0 l/m² 2 min 0 min 231 W/m² 12,9 km/h (3 Bft) 100,00 %
13.02.2026 12:50 7,1 °C 9,4 °C 4,4 °C 83 % 993,3 hPa 0,0 l/m² 2 min 0 min 217 W/m² 6,4 km/h (2 Bft) 100,00 %
13.02.2026 12:52 7,1 °C 8,9 °C 3,9 °C 83 % 993,4 hPa 0,0 l/m² 0 min 0 min 204 W/m² 16,1 km/h (3 Bft) 97,14 %
13.02.2026 12:54 7,1 °C 8,9 °C 3,9 °C 83 % 993,4 hPa 0,0 l/m² 0 min 0 min 201 W/m² 9,7 km/h (2 Bft) 100,00 %
13.02.2026 12:56 7,1 °C 8,9 °C 3,9 °C 83 % 993,3 hPa 0,0 l/m² 0 min 0 min 206 W/m² 9,7 km/h (2 Bft) 97,83 %
13.02.2026 12:58 7,1 °C 8,3 °C 3,9 °C 83 % 993,3 hPa 0,0 l/m² 0 min 0 min 181 W/m² 9,7 km/h (2 Bft) 97,87 %
13.02.2026 13:00 7,1 °C 8,3 °C 3,9 °C 83 % 993,4 hPa 0,0 l/m² 0 min 0 min 151 W/m² 9,7 km/h (2 Bft) 97,87 %
13.02.2026 13:02 7,1 °C 7,8 °C 3,9 °C 82 % 993,3 hPa 0,0 l/m² 0 min 0 min 135 W/m² 9,7 km/h (2 Bft) 93,62 %
13.02.2026 13:04 7,1 °C 7,8 °C 3,3 °C 82 % 993,3 hPa 0,0 l/m² 0 min 0 min 155 W/m² 6,4 km/h (2 Bft) 93,62 %
13.02.2026 13:06 7,0 °C 8,3 °C 3,3 °C 82 % 993,3 hPa 0,0 l/m² 0 min 0 min 183 W/m² 6,4 km/h (2 Bft) 94,92 %
13.02.2026 13:08 7,0 °C 8,3 °C 3,3 °C 82 % 993,3 hPa 0,0 l/m² 0 min 0 min 174 W/m² 16,1 km/h (3 Bft) 94,44 %
13.02.2026 13:10 6,9 °C 8,3 °C 3,3 °C 82 % 993,3 hPa 0,0 l/m² 0 min 0 min 162 W/m² 9,7 km/h (2 Bft) 95,74 %
13.02.2026 13:12 6,9 °C 8,3 °C 3,3 °C 83 % 993,3 hPa 0,0 l/m² 0 min 0 min 172 W/m² 12,9 km/h (3 Bft) 95,74 %
13.02.2026 13:14 6,9 °C 8,3 °C 3,3 °C 83 % 993,3 hPa 0,0 l/m² 0 min 0 min 186 W/m² 12,9 km/h (3 Bft) 93,62 %
13.02.2026 13:16 6,8 °C 7,8 °C 3,3 °C 83 % 993,2 hPa 0,0 l/m² 0 min 0 min 191 W/m² 12,9 km/h (3 Bft) 95,74 %
13.02.2026 13:18 6,8 °C 7,8 °C 3,3 °C 83 % 993,3 hPa 0,0 l/m² 0 min 0 min 200 W/m² 12,9 km/h (3 Bft) 95,92 %
13.02.2026 13:20 6,8 °C 8,3 °C 3,3 °C 83 % 993,3 hPa 0,0 l/m² 2 min 0 min 224 W/m² 9,7 km/h (2 Bft) 94,29 %
13.02.2026 13:22 6,8 °C 8,3 °C 3,3 °C 83 % 993,3 hPa 0,0 l/m² 0 min 0 min 211 W/m² 6,4 km/h (2 Bft) 95,74 %
13.02.2026 13:24 6,8 °C 8,3 °C 3,3 °C 83 % 993,2 hPa 0,0 l/m² 0 min 0 min 182 W/m² 9,7 km/h (2 Bft) 93,62 %
13.02.2026 13:26 6,8 °C 8,3 °C 3,3 °C 83 % 993,3 hPa 0,0 l/m² 0 min 0 min 165 W/m² 12,9 km/h (3 Bft) 90,91 %
13.02.2026 13:28 6,8 °C 7,8 °C 3,3 °C 83 % 993,3 hPa 0,0 l/m² 0 min 0 min 161 W/m² 12,9 km/h (3 Bft) 95,74 %
13.02.2026 13:30 6,8 °C 7,8 °C 3,3 °C 83 % 993,3 hPa 0,0 l/m² 0 min 0 min 173 W/m² 6,4 km/h (2 Bft) 95,74 %
13.02.2026 13:32 6,8 °C 7,8 °C 3,3 °C 83 % 993,4 hPa 0,0 l/m² 0 min 0 min 166 W/m² 12,9 km/h (3 Bft) 93,62 %
13.02.2026 13:34 6,7 °C 7,8 °C 3,3 °C 83 % 993,4 hPa 0,0 l/m² 0 min 0 min 134 W/m² 12,9 km/h (3 Bft) 95,74 %
13.02.2026 13:36 6,7 °C 7,2 °C 2,8 °C 82 % 993,4 hPa 0,0 l/m² 0 min 0 min 114 W/m² 16,1 km/h (3 Bft) 97,87 %
13.02.2026 13:38 6,7 °C 7,2 °C 2,8 °C 82 % 993,4 hPa 0,0 l/m² 0 min 0 min 105 W/m² 9,7 km/h (2 Bft) 97,87 %
13.02.2026 13:40 6,6 °C 7,2 °C 2,8 °C 82 % 993,4 hPa 0,0 l/m² 0 min 0 min 115 W/m² 9,7 km/h (2 Bft) 95,65 %
13.02.2026 13:42 6,6 °C 7,2 °C 2,8 °C 82 % 993,4 hPa 0,0 l/m² 0 min 0 min 140 W/m² 9,7 km/h (2 Bft) 93,62 %
13.02.2026 13:44 6,6 °C 7,2 °C 2,8 °C 82 % 993,4 hPa 0,0 l/m² 0 min 0 min 156 W/m² 12,9 km/h (3 Bft) 98,00 %
13.02.2026 13:46 6,5 °C 7,2 °C 2,8 °C 83 % 993,3 hPa 0,0 l/m² 0 min 0 min 167 W/m² 16,1 km/h (3 Bft) 93,62 %
13.02.2026 13:48 6,5 °C 7,2 °C 2,8 °C 82 % 993,4 hPa 0,0 l/m² 0 min 0 min 184 W/m² 12,9 km/h (3 Bft) 93,62 %
13.02.2026 13:50 6,5 °C 7,2 °C 2,8 °C 82 % 993,3 hPa 0,0 l/m² 0 min 0 min 157 W/m² 6,4 km/h (2 Bft) 93,62 %
13.02.2026 13:52 6,5 °C 7,8 °C 2,8 °C 82 % 993,4 hPa 0,0 l/m² 0 min 0 min 168 W/m² 6,4 km/h (2 Bft) 97,87 %
13.02.2026 13:54 6,5 °C 7,8 °C 2,8 °C 83 % 993,3 hPa 0,0 l/m² 0 min 0 min 175 W/m² 6,4 km/h (2 Bft) 97,87 %
13.02.2026 13:56 6,5 °C 7,8 °C 2,8 °C 83 % 993,4 hPa 0,0 l/m² 0 min 0 min 194 W/m² 12,9 km/h (3 Bft) 97,87 %
13.02.2026 13:58 6,5 °C 8,3 °C 3,3 °C 83 % 993,4 hPa 0,0 l/m² 2 min 0 min 222 W/m² 9,7 km/h (2 Bft) 93,62 %
13.02.2026 14:00 6,5 °C 9,4 °C 3,3 °C 83 % 993,4 hPa 0,0 l/m² 2 min 0 min 275 W/m² 6,4 km/h (2 Bft) 95,74 %
13.02.2026 14:02 6,6 °C 9,4 °C 3,3 °C 83 % 993,4 hPa 0,0 l/m² 2 min 0 min 263 W/m² 16,1 km/h (3 Bft) 95,65 %
13.02.2026 14:04 6,6 °C 9,4 °C 3,3 °C 83 % 993,4 hPa 0,0 l/m² 2 min 0 min 221 W/m² 6,4 km/h (2 Bft) 95,74 %
13.02.2026 14:06 6,6 °C 9,4 °C 3,3 °C 82 % 993,3 hPa 0,0 l/m² 0 min 0 min 195 W/m² 9,7 km/h (2 Bft) 95,74 %
13.02.2026 14:08 6,6 °C 8,9 °C 3,3 °C 82 % 993,3 hPa 0,0 l/m² 0 min 0 min 196 W/m² 6,4 km/h (2 Bft) 97,92 %
13.02.2026 14:10 6,6 °C 8,9 °C 3,3 °C 82 % 993,3 hPa 0,0 l/m² 0 min 0 min 181 W/m² 9,7 km/h (2 Bft) 97,87 %
13.02.2026 14:12 6,7 °C 8,3 °C 3,3 °C 82 % 993,3 hPa 0,0 l/m² 0 min 0 min 165 W/m² 12,9 km/h (3 Bft) 97,87 %
13.02.2026 14:14 6,7 °C 7,8 °C 3,3 °C 82 % 993,3 hPa 0,0 l/m² 0 min 0 min 168 W/m² 9,7 km/h (2 Bft) 93,62 %
13.02.2026 14:16 6,7 °C 7,8 °C 2,8 °C 82 % 993,3 hPa 0,0 l/m² 0 min 0 min 169 W/m² 9,7 km/h (2 Bft) 95,74 %
13.02.2026 14:18 6,6 °C 7,8 °C 3,3 °C 82 % 993,3 hPa 0,0 l/m² 0 min 0 min 166 W/m² 9,7 km/h (2 Bft) 97,87 %
13.02.2026 14:20 6,6 °C 7,8 °C 3,3 °C 82 % 993,3 hPa 0,0 l/m² 0 min 0 min 169 W/m² 9,7 km/h (2 Bft) 97,87 %
13.02.2026 14:22 6,6 °C 7,8 °C 3,3 °C 82 % 993,3 hPa 0,0 l/m² 0 min 0 min 164 W/m² 3,2 km/h (1 Bft) 95,74 %
13.02.2026 14:24 6,6 °C 7,8 °C 3,3 °C 82 % 993,3 hPa 0,0 l/m² 0 min 0 min 162 W/m² 9,7 km/h (2 Bft) 97,14 %
13.02.2026 14:26 6,6 °C 7,8 °C 2,8 °C 82 % 993,2 hPa 0,0 l/m² 0 min 0 min 174 W/m² 9,7 km/h (2 Bft) 97,92 %
13.02.2026 14:28 6,6 °C 7,8 °C 3,3 °C 82 % 993,3 hPa 0,0 l/m² 0 min 0 min 171 W/m² 9,7 km/h (2 Bft) 97,87 %
13.02.2026 14:30 6,6 °C 8,3 °C 3,3 °C 82 % 993,3 hPa 0,0 l/m² 0 min 0 min 169 W/m² 6,4 km/h (2 Bft) 97,83 %
13.02.2026 14:32 6,6 °C 7,8 °C 3,3 °C 82 % 993,3 hPa 0,0 l/m² 0 min 0 min 167 W/m² 6,4 km/h (2 Bft) 97,87 %
13.02.2026 14:34 6,6 °C 7,8 °C 3,3 °C 82 % 993,2 hPa 0,0 l/m² 0 min 0 min 159 W/m² 6,4 km/h (2 Bft) 97,87 %
13.02.2026 14:36 6,6 °C 7,8 °C 2,8 °C 82 % 993,2 hPa 0,0 l/m² 0 min 0 min 142 W/m² 6,4 km/h (2 Bft) 97,87 %
13.02.2026 14:38 6,7 °C 7,8 °C 2,8 °C 83 % 993,3 hPa 0,0 l/m² 0 min 0 min 130 W/m² 6,4 km/h (2 Bft) 97,87 %
13.02.2026 14:40 6,6 °C 7,2 °C 2,8 °C 83 % 993,3 hPa 0,0 l/m² 0 min 0 min 117 W/m² 12,9 km/h (3 Bft) 95,74 %
13.02.2026 14:42 6,6 °C 7,2 °C 2,8 °C 82 % 993,3 hPa 0,0 l/m² 0 min 0 min 119 W/m² 6,4 km/h (2 Bft) 97,87 %
13.02.2026 14:44 6,6 °C 7,2 °C 2,8 °C 82 % 993,3 hPa 0,0 l/m² 0 min 0 min 124 W/m² 9,7 km/h (2 Bft) 95,74 %
13.02.2026 14:46 6,6 °C 7,2 °C 2,8 °C 83 % 993,3 hPa 0,0 l/m² 0 min 0 min 118 W/m² 6,4 km/h (2 Bft) 100,00 %
13.02.2026 14:48 6,6 °C 7,2 °C 2,8 °C 83 % 993,3 hPa 0,0 l/m² 0 min 0 min 114 W/m² 12,9 km/h (3 Bft) 100,00 %
13.02.2026 14:50 6,5 °C 6,7 °C 2,8 °C 83 % 993,3 hPa 0,0 l/m² 0 min 0 min 115 W/m² 9,7 km/h (2 Bft) 100,00 %
13.02.2026 14:52 6,5 °C 7,2 °C 2,8 °C 83 % 993,4 hPa 0,0 l/m² 0 min 0 min 111 W/m² 12,9 km/h (3 Bft) 97,83 %
13.02.2026 14:54 6,5 °C 6,7 °C 2,8 °C 83 % 993,3 hPa 0,0 l/m² 0 min 0 min 116 W/m² 16,1 km/h (3 Bft) 100,00 %
13.02.2026 14:56 6,5 °C 6,7 °C 2,8 °C 83 % 993,3 hPa 0,0 l/m² 0 min 0 min 112 W/m² 9,7 km/h (2 Bft) 97,87 %
13.02.2026 14:58 6,5 °C 6,7 °C 2,8 °C 83 % 993,3 hPa 0,0 l/m² 0 min 0 min 113 W/m² 9,7 km/h (2 Bft) 100,00 %
13.02.2026 15:00 6,5 °C 6,7 °C 2,8 °C 83 % 993,3 hPa 0,0 l/m² 0 min 0 min 117 W/m² 6,4 km/h (2 Bft) 95,74 %
13.02.2026 15:02 6,4 °C 6,7 °C 2,8 °C 83 % 993,3 hPa 0,0 l/m² 0 min 0 min 117 W/m² 6,4 km/h (2 Bft) 97,87 %
13.02.2026 15:04 6,4 °C 6,7 °C 2,8 °C 83 % 993,3 hPa 0,0 l/m² 0 min 0 min 103 W/m² 6,4 km/h (2 Bft) 97,92 %
13.02.2026 15:06 6,3 °C 6,1 °C 2,8 °C 83 % 993,3 hPa 0,0 l/m² 0 min 0 min 97 W/m² 12,9 km/h (3 Bft) 97,87 %
13.02.2026 15:08 6,3 °C 6,7 °C 2,2 °C 83 % 993,3 hPa 0,0 l/m² 0 min 0 min 100 W/m² 12,9 km/h (3 Bft) 97,87 %
13.02.2026 15:10 6,3 °C 6,7 °C 2,2 °C 83 % 993,3 hPa 0,0 l/m² 0 min 0 min 110 W/m² 16,1 km/h (3 Bft) 97,87 %
13.02.2026 15:12 6,3 °C 6,7 °C 2,2 °C 83 % 993,4 hPa 0,0 l/m² 0 min 0 min 105 W/m² 16,1 km/h (3 Bft) 95,74 %
13.02.2026 15:14 6,3 °C 6,7 °C 2,2 °C 83 % 993,4 hPa 0,0 l/m² 0 min 0 min 101 W/m² 9,7 km/h (2 Bft) 95,65 %
13.02.2026 15:16 6,2 °C 6,7 °C 2,2 °C 83 % 993,4 hPa 0,0 l/m² 0 min 0 min 103 W/m² 12,9 km/h (3 Bft) 95,74 %
13.02.2026 15:18 6,2 °C 6,7 °C 2,2 °C 83 % 993,4 hPa 0,0 l/m² 0 min 0 min 109 W/m² 9,7 km/h (2 Bft) 97,87 %
13.02.2026 15:20 6,2 °C 6,7 °C 2,2 °C 83 % 993,4 hPa 0,0 l/m² 0 min 0 min 113 W/m² 12,9 km/h (3 Bft) 97,87 %
13.02.2026 15:22 6,1 °C 6,7 °C 2,2 °C 83 % 993,4 hPa 0,0 l/m² 0 min 0 min 118 W/m² 12,9 km/h (3 Bft) 97,87 %
13.02.2026 15:24 6,1 °C 6,7 °C 2,2 °C 83 % 993,4 hPa 0,0 l/m² 0 min 0 min 125 W/m² 9,7 km/h (2 Bft) 97,87 %
13.02.2026 15:26 6,1 °C 7,2 °C 2,2 °C 83 % 993,4 hPa 0,0 l/m² 0 min 0 min 134 W/m² 9,7 km/h (2 Bft) 97,87 %
13.02.2026 15:28 6,1 °C 7,2 °C 2,2 °C 84 % 993,4 hPa 0,0 l/m² 0 min 0 min 136 W/m² 12,9 km/h (3 Bft) 97,87 %
13.02.2026 15:30 6,1 °C 7,2 °C 2,2 °C 84 % 993,5 hPa 0,0 l/m² 0 min 0 min 130 W/m² 16,1 km/h (3 Bft) 97,87 %
13.02.2026 15:32 6,1 °C 7,2 °C 2,2 °C 84 % 993,5 hPa 0,0 l/m² 0 min 0 min 122 W/m² 16,1 km/h (3 Bft) 97,87 %
13.02.2026 15:34 6,1 °C 6,7 °C 2,2 °C 84 % 993,5 hPa 0,0 l/m² 0 min 0 min 114 W/m² 6,4 km/h (2 Bft) 97,87 %
13.02.2026 15:36 6,1 °C 6,7 °C 2,2 °C 84 % 993,5 hPa 0,0 l/m² 0 min 0 min 108 W/m² 19,3 km/h (3 Bft) 100,00 %
13.02.2026 15:38 6,0 °C 6,7 °C 2,2 °C 84 % 993,5 hPa 0,0 l/m² 0 min 0 min 115 W/m² 9,7 km/h (2 Bft) 100,00 %
13.02.2026 15:40 6,0 °C 6,7 °C 2,2 °C 84 % 993,5 hPa 0,0 l/m² 2 min 0 min 141 W/m² 9,7 km/h (2 Bft) 100,00 %
13.02.2026 15:42 6,0 °C 7,2 °C 2,2 °C 84 % 993,6 hPa 0,0 l/m² 2 min 0 min 137 W/m² 9,7 km/h (2 Bft) 100,00 %
13.02.2026 15:44 5,9 °C 6,7 °C 2,2 °C 84 % 993,6 hPa 0,0 l/m² 2 min 0 min 132 W/m² 9,7 km/h (2 Bft) 100,00 %
13.02.2026 15:46 5,9 °C 6,7 °C 2,2 °C 84 % 993,6 hPa 0,0 l/m² 0 min 0 min 119 W/m² 12,9 km/h (3 Bft) 95,74 %
13.02.2026 15:48 5,9 °C 6,7 °C 2,2 °C 84 % 993,6 hPa 0,0 l/m² 0 min 0 min 93 W/m² 12,9 km/h (3 Bft) 100,00 %
13.02.2026 15:50 5,8 °C 6,1 °C 1,7 °C 84 % 993,6 hPa 0,0 l/m² 0 min 0 min 80 W/m² 12,9 km/h (3 Bft) 100,00 %
13.02.2026 15:52 5,8 °C 6,1 °C 1,7 °C 84 % 993,6 hPa 0,0 l/m² 0 min 0 min 81 W/m² 9,7 km/h (2 Bft) 100,00 %
13.02.2026 15:54 5,8 °C 6,1 °C 1,7 °C 84 % 993,7 hPa 0,0 l/m² 0 min 0 min 80 W/m² 12,9 km/h (3 Bft) 100,00 %
13.02.2026 15:56 5,7 °C 5,6 °C 1,7 °C 84 % 993,7 hPa 0,0 l/m² 0 min 0 min 70 W/m² 22,5 km/h (4 Bft) 97,83 %
13.02.2026 15:58 5,6 °C 5,6 °C 1,7 °C 84 % 993,7 hPa 0,0 l/m² 0 min 0 min 70 W/m² 16,1 km/h (3 Bft) 100,00 %
13.02.2026 16:00 5,4 °C 5,6 °C 1,7 °C 84 % 993,7 hPa 0,0 l/m² 0 min 0 min 78 W/m² 22,5 km/h (4 Bft) 100,00 %
13.02.2026 16:02 5,4 °C 5,0 °C 1,7 °C 84 % 993,8 hPa 0,0 l/m² 0 min 0 min 73 W/m² 19,3 km/h (3 Bft) 100,00 %
13.02.2026 16:04 5,3 °C 5,0 °C 1,7 °C 84 % 993,8 hPa 0,0 l/m² 0 min 0 min 67 W/m² 9,7 km/h (2 Bft) 97,87 %
13.02.2026 16:06 5,3 °C 5,0 °C 1,7 °C 85 % 993,9 hPa 0,0 l/m² 0 min 0 min 65 W/m² 9,7 km/h (2 Bft) 96,61 %
13.02.2026 16:08 5,2 °C 5,0 °C 1,7 °C 85 % 993,9 hPa 0,0 l/m² 0 min 0 min 63 W/m² 16,1 km/h (3 Bft) 100,00 %
13.02.2026 16:10 5,2 °C 5,0 °C 1,7 °C 85 % 993,9 hPa 0,0 l/m² 0 min 0 min 60 W/m² 16,1 km/h (3 Bft) 95,74 %
13.02.2026 16:12 5,1 °C 5,0 °C 1,7 °C 85 % 993,9 hPa 0,0 l/m² 0 min 0 min 60 W/m² 9,7 km/h (2 Bft) 95,74 %
13.02.2026 16:14 5,1 °C 5,0 °C 1,1 °C 85 % 993,9 hPa 0,0 l/m² 0 min 0 min 56 W/m² 12,9 km/h (3 Bft) 97,87 %
13.02.2026 16:16 5,1 °C 5,0 °C 1,1 °C 85 % 993,9 hPa 0,0 l/m² 0 min 0 min 56 W/m² 6,4 km/h (2 Bft) 95,74 %
13.02.2026 16:18 5,1 °C 5,0 °C 1,1 °C 85 % 994,0 hPa 0,0 l/m² 0 min 0 min 56 W/m² 6,4 km/h (2 Bft) 97,87 %
13.02.2026 16:20 5,1 °C 5,0 °C 1,1 °C 86 % 993,9 hPa 0,0 l/m² 0 min 0 min 50 W/m² 6,4 km/h (2 Bft) 95,74 %
13.02.2026 16:22 5,0 °C 4,4 °C 1,1 °C 86 % 994,0 hPa 0,0 l/m² 0 min 0 min 45 W/m² 9,7 km/h (2 Bft) 97,87 %
13.02.2026 16:24 4,9 °C 4,4 °C 1,1 °C 86 % 994,0 hPa 0,0 l/m² 0 min 0 min 44 W/m² 6,4 km/h (2 Bft) 97,87 %
13.02.2026 16:26 4,9 °C 4,4 °C 1,1 °C 85 % 994,0 hPa 0,0 l/m² 0 min 0 min 45 W/m² 9,7 km/h (2 Bft) 97,83 %
13.02.2026 16:28 4,9 °C 4,4 °C 1,1 °C 86 % 994,1 hPa 0,0 l/m² 0 min 0 min 43 W/m² 6,4 km/h (2 Bft) 95,74 %
13.02.2026 16:30 4,9 °C 4,4 °C 1,1 °C 86 % 994,0 hPa 0,0 l/m² 0 min 0 min 41 W/m² 6,4 km/h (2 Bft) 95,74 %
13.02.2026 16:32 4,9 °C 4,4 °C 1,1 °C 86 % 994,1 hPa 0,0 l/m² 0 min 0 min 41 W/m² 6,4 km/h (2 Bft) 95,74 %
13.02.2026 16:34 4,8 °C 4,4 °C 1,1 °C 86 % 994,2 hPa 0,0 l/m² 0 min 0 min 43 W/m² 6,4 km/h (2 Bft) 95,74 %
13.02.2026 16:36 4,8 °C 4,4 °C 1,1 °C 86 % 994,2 hPa 0,0 l/m² 0 min 0 min 39 W/m² 9,7 km/h (2 Bft) 97,87 %
13.02.2026 16:38 4,8 °C 4,4 °C 1,1 °C 86 % 994,1 hPa 0,0 l/m² 0 min 0 min 39 W/m² 12,9 km/h (3 Bft) 93,62 %
13.02.2026 16:40 4,8 °C 4,4 °C 1,1 °C 86 % 994,1 hPa 0,0 l/m² 0 min 0 min 38 W/m² 6,4 km/h (2 Bft) 97,87 %
13.02.2026 16:42 4,8 °C 4,4 °C 1,1 °C 86 % 994,2 hPa 0,0 l/m² 0 min 0 min 34 W/m² 9,7 km/h (2 Bft) 97,87 %
13.02.2026 16:44 4,7 °C 4,4 °C 1,1 °C 86 % 994,3 hPa 0,0 l/m² 0 min 0 min 33 W/m² 6,4 km/h (2 Bft) 93,62 %
13.02.2026 16:46 4,7 °C 4,4 °C 1,1 °C 86 % 994,3 hPa 0,0 l/m² 0 min 0 min 33 W/m² 9,7 km/h (2 Bft) 97,83 %
13.02.2026 16:48 4,7 °C 4,4 °C 0,6 °C 86 % 994,2 hPa 0,0 l/m² 0 min 0 min 32 W/m² 6,4 km/h (2 Bft) 95,74 %
13.02.2026 16:50 4,6 °C 4,4 °C 0,6 °C 86 % 994,3 hPa 0,0 l/m² 0 min 0 min 34 W/m² 9,7 km/h (2 Bft) 92,00 %
13.02.2026 16:52 4,6 °C 4,4 °C 0,6 °C 86 % 994,2 hPa 0,0 l/m² 0 min 0 min 34 W/m² 6,4 km/h (2 Bft) 95,74 %
13.02.2026 16:54 4,6 °C 4,4 °C 0,6 °C 86 % 994,3 hPa 0,0 l/m² 0 min 0 min 30 W/m² 9,7 km/h (2 Bft) 91,49 %
13.02.2026 16:56 4,6 °C 4,4 °C 0,6 °C 86 % 994,3 hPa 0,0 l/m² 0 min 0 min 26 W/m² 9,7 km/h (2 Bft) 91,49 %
13.02.2026 16:58 4,6 °C 4,4 °C 0,6 °C 86 % 994,3 hPa 0,0 l/m² 0 min 0 min 25 W/m² 9,7 km/h (2 Bft) 93,62 %
13.02.2026 17:00 4,5 °C 3,9 °C 0,6 °C 87 % 994,3 hPa 0,0 l/m² 0 min 0 min 25 W/m² 9,7 km/h (2 Bft) 95,74 %
13.02.2026 17:02 4,5 °C 3,9 °C 0,6 °C 87 % 994,3 hPa 0,0 l/m² 0 min 0 min 25 W/m² 9,7 km/h (2 Bft) 93,62 %
13.02.2026 17:04 4,4 °C 3,9 °C 0,6 °C 87 % 994,3 hPa 0,0 l/m² 0 min 0 min 22 W/m² 9,7 km/h (2 Bft) 93,75 %
13.02.2026 17:06 4,4 °C 3,9 °C 0,6 °C 87 % 994,4 hPa 0,0 l/m² 0 min 0 min 19 W/m² 9,7 km/h (2 Bft) 91,49 %
13.02.2026 17:08 4,4 °C 3,9 °C 0,6 °C 87 % 994,4 hPa 0,0 l/m² 0 min 0 min 17 W/m² 9,7 km/h (2 Bft) 95,74 %
13.02.2026 17:10 4,4 °C 3,9 °C 0,6 °C 87 % 994,4 hPa 0,0 l/m² 0 min 0 min 15 W/m² 6,4 km/h (2 Bft) 95,65 %
13.02.2026 17:12 4,3 °C 3,9 °C 0,6 °C 87 % 994,4 hPa 0,0 l/m² 0 min 0 min 13 W/m² 6,4 km/h (2 Bft) 95,74 %
13.02.2026 17:14 4,3 °C 3,9 °C 0,6 °C 87 % 994,3 hPa 0,0 l/m² 0 min 0 min 12 W/m² 6,4 km/h (2 Bft) 95,74 %
13.02.2026 17:16 4,3 °C 3,9 °C 0,6 °C 87 % 994,4 hPa 0,0 l/m² 0 min 0 min 11 W/m² 9,7 km/h (2 Bft) 91,49 %
13.02.2026 17:18 4,3 °C 3,9 °C 0,6 °C 87 % 994,4 hPa 0,0 l/m² 0 min 0 min 11 W/m² 16,1 km/h (3 Bft) 95,74 %
13.02.2026 17:20 4,3 °C 3,9 °C 0,6 °C 87 % 994,4 hPa 0,0 l/m² 0 min 0 min 9 W/m² 12,9 km/h (3 Bft) 95,74 %
13.02.2026 17:22 4,3 °C 3,9 °C 0,6 °C 87 % 994,4 hPa 0,0 l/m² 0 min 0 min 9 W/m² 6,4 km/h (2 Bft) 97,87 %
13.02.2026 17:24 4,3 °C 3,9 °C 0,6 °C 87 % 994,5 hPa 0,0 l/m² 0 min 0 min 7 W/m² 6,4 km/h (2 Bft) 95,74 %
13.02.2026 17:26 4,3 °C 3,9 °C 0,6 °C 87 % 994,5 hPa 0,0 l/m² 0 min 0 min 6 W/m² 12,9 km/h (3 Bft) 95,74 %
13.02.2026 17:28 4,3 °C 3,9 °C 0,6 °C 87 % 994,6 hPa 0,0 l/m² 0 min 0 min 5 W/m² 12,9 km/h (3 Bft) 97,87 %
13.02.2026 17:30 4,2 °C 3,9 °C 0,6 °C 87 % 994,6 hPa 0,0 l/m² 0 min 0 min 5 W/m² 9,7 km/h (2 Bft) 97,87 %
13.02.2026 17:32 4,2 °C 3,9 °C 0,6 °C 87 % 994,7 hPa 0,0 l/m² 0 min 0 min 5 W/m² 9,7 km/h (2 Bft) 100,00 %
13.02.2026 17:34 4,2 °C 3,9 °C 0,6 °C 87 % 994,7 hPa 0,0 l/m² 0 min 0 min 0 W/m² 16,1 km/h (3 Bft) 100,00 %
13.02.2026 17:36 4,2 °C 3,9 °C 0,0 °C 87 % 994,7 hPa 0,0 l/m² 0 min 0 min 0 W/m² 9,7 km/h (2 Bft) 100,00 %
13.02.2026 17:38 4,1 °C 3,3 °C 0,0 °C 87 % 994,8 hPa 0,0 l/m² 0 min 0 min 0 W/m² 9,7 km/h (2 Bft) 100,00 %
13.02.2026 17:40 4,1 °C 3,3 °C 0,0 °C 87 % 994,8 hPa 0,0 l/m² 0 min 0 min 0 W/m² 12,9 km/h (3 Bft) 97,87 %
13.02.2026 17:42 4,1 °C 3,3 °C 0,0 °C 87 % 994,8 hPa 0,0 l/m² 0 min 0 min 0 W/m² 9,7 km/h (2 Bft) 100,00 %
13.02.2026 17:44 4,0 °C 3,3 °C 0,0 °C 87 % 994,9 hPa 0,0 l/m² 0 min 0 min 0 W/m² 9,7 km/h (2 Bft) 100,00 %
13.02.2026 17:46 4,0 °C 3,3 °C 0,0 °C 88 % 994,9 hPa 0,0 l/m² 0 min 0 min 0 W/m² 9,7 km/h (2 Bft) 100,00 %
13.02.2026 17:48 4,0 °C 3,3 °C 0,0 °C 88 % 994,9 hPa 0,0 l/m² 0 min 0 min 0 W/m² 16,1 km/h (3 Bft) 100,00 %
13.02.2026 17:50 3,9 °C 3,3 °C 0,0 °C 88 % 994,9 hPa 0,0 l/m² 0 min 0 min 0 W/m² 12,9 km/h (3 Bft) 97,87 %
13.02.2026 17:52 3,9 °C 3,3 °C 0,0 °C 87 % 995,0 hPa 0,0 l/m² 0 min 0 min 0 W/m² 16,1 km/h (3 Bft) 100,00 %
13.02.2026 17:54 3,9 °C 3,3 °C 0,0 °C 88 % 995,0 hPa 0,0 l/m² 0 min 0 min 0 W/m² 12,9 km/h (3 Bft) 100,00 %
13.02.2026 17:56 3,9 °C 3,3 °C 0,0 °C 88 % 995,0 hPa 0,0 l/m² 0 min 0 min 0 W/m² 6,4 km/h (2 Bft) 100,00 %
13.02.2026 17:58 3,9 °C 3,3 °C 0,0 °C 88 % 995,0 hPa 0,0 l/m² 0 min 0 min 0 W/m² 12,9 km/h (3 Bft) 100,00 %
13.02.2026 18:00 3,9 °C 3,3 °C 0,0 °C 88 % 995,0 hPa 0,0 l/m² 0 min 0 min 0 W/m² 12,9 km/h (3 Bft) 100,00 %
13.02.2026 18:02 3,9 °C 3,3 °C 0,0 °C 88 % 995,1 hPa 0,0 l/m² 0 min 0 min 0 W/m² 6,4 km/h (2 Bft) 100,00 %
13.02.2026 18:04 3,8 °C 3,3 °C 0,0 °C 88 % 995,1 hPa 0,0 l/m² 0 min 0 min 0 W/m² 19,3 km/h (3 Bft) 100,00 %
13.02.2026 18:07 3,8 °C 3,3 °C 0,0 °C 88 % 995,2 hPa 0,0 l/m² 0 min 0 min 0 W/m² 6,4 km/h (2 Bft) 100,00 %
13.02.2026 18:08 3,8 °C 3,3 °C 0,0 °C 88 % 995,2 hPa 0,0 l/m² 0 min 0 min 0 W/m² 6,4 km/h (2 Bft) 100,00 %
13.02.2026 18:12 3,8 °C 3,3 °C 0,0 °C 88 % 995,2 hPa 0,0 l/m² 0 min 0 min 0 W/m² 12,9 km/h (3 Bft) 100,00 %
13.02.2026 18:14 3,7 °C 3,3 °C 0,0 °C 88 % 995,2 hPa 0,0 l/m² 0 min 0 min 0 W/m² 16,1 km/h (3 Bft) 100,00 %
13.02.2026 18:16 3,7 °C 3,3 °C 0,0 °C 88 % 995,3 hPa 0,0 l/m² 0 min 0 min 0 W/m² 6,4 km/h (2 Bft) 100,00 %
13.02.2026 18:18 3,7 °C 3,3 °C 0,0 °C 88 % 995,3 hPa 0,0 l/m² 0 min 0 min 0 W/m² 16,1 km/h (3 Bft) 100,00 %
13.02.2026 18:20 3,7 °C 3,3 °C 0,0 °C 88 % 995,3 hPa 0,0 l/m² 0 min 0 min 0 W/m² 9,7 km/h (2 Bft) 97,87 %
13.02.2026 18:22 3,7 °C 3,3 °C 0,0 °C 88 % 995,3 hPa 0,0 l/m² 0 min 0 min 0 W/m² 9,7 km/h (2 Bft) 97,87 %
13.02.2026 18:24 3,7 °C 3,3 °C 0,0 °C 88 % 995,4 hPa 0,0 l/m² 0 min 0 min 0 W/m² 9,7 km/h (2 Bft) 100,00 %
13.02.2026 18:26 3,7 °C 3,3 °C 0,0 °C 88 % 995,4 hPa 0,0 l/m² 0 min 0 min 0 W/m² 12,9 km/h (3 Bft) 100,00 %
13.02.2026 18:28 3,7 °C 3,3 °C 0,0 °C 88 % 995,5 hPa 0,0 l/m² 0 min 0 min 0 W/m² 12,9 km/h (3 Bft) 100,00 %
13.02.2026 18:30 3,7 °C 3,3 °C 0,0 °C 88 % 995,5 hPa 0,0 l/m² 0 min 0 min 0 W/m² 9,7 km/h (2 Bft) 97,92 %
13.02.2026 18:32 3,6 °C 2,8 °C 0,0 °C 88 % 995,5 hPa 0,0 l/m² 0 min 0 min 0 W/m² 12,9 km/h (3 Bft) 100,00 %
13.02.2026 18:34 3,6 °C 3,3 °C 0,0 °C 88 % 995,5 hPa 0,0 l/m² 0 min 0 min 0 W/m² 12,9 km/h (3 Bft) 100,00 %
13.02.2026 18:36 3,6 °C 3,3 °C 0,0 °C 88 % 995,5 hPa 0,0 l/m² 0 min 0 min 0 W/m² 12,9 km/h (3 Bft) 100,00 %
13.02.2026 18:38 3,6 °C 2,8 °C 0,0 °C 88 % 995,5 hPa 0,0 l/m² 0 min 0 min 0 W/m² 3,2 km/h (1 Bft) 97,87 %
13.02.2026 18:40 3,6 °C 2,8 °C 0,0 °C 88 % 995,5 hPa 0,0 l/m² 0 min 0 min 0 W/m² 6,4 km/h (2 Bft) 97,87 %
13.02.2026 18:42 3,6 °C 3,3 °C 0,0 °C 88 % 995,5 hPa 0,0 l/m² 0 min 0 min 0 W/m² 9,7 km/h (2 Bft) 97,87 %
13.02.2026 18:44 3,6 °C 2,8 °C 0,0 °C 88 % 995,5 hPa 0,0 l/m² 0 min 0 min 0 W/m² 12,9 km/h (3 Bft) 97,83 %
13.02.2026 18:46 3,6 °C 2,8 °C -0,6 °C 89 % 995,6 hPa 0,0 l/m² 0 min 0 min 0 W/m² 12,9 km/h (3 Bft) 97,87 %
13.02.2026 18:48 3,5 °C 2,8 °C -0,6 °C 89 % 995,6 hPa 0,0 l/m² 0 min 0 min 0 W/m² 19,3 km/h (3 Bft) 97,87 %
13.02.2026 18:50 3,5 °C 2,8 °C -0,6 °C 89 % 995,6 hPa 0,0 l/m² 0 min 0 min 0 W/m² 12,9 km/h (3 Bft) 94,29 %
13.02.2026 18:52 3,5 °C 2,8 °C -0,6 °C 89 % 995,6 hPa 0,0 l/m² 0 min 0 min 0 W/m² 12,9 km/h (3 Bft) 97,87 %
13.02.2026 18:54 3,4 °C 2,8 °C -0,6 °C 89 % 995,7 hPa 0,0 l/m² 0 min 0 min 0 W/m² 9,7 km/h (2 Bft) 95,74 %
13.02.2026 18:56 3,4 °C 2,8 °C -0,6 °C 89 % 995,7 hPa 0,0 l/m² 0 min 0 min 0 W/m² 9,7 km/h (2 Bft) 97,87 %
13.02.2026 18:58 3,4 °C 2,8 °C -0,6 °C 88 % 995,7 hPa 0,0 l/m² 0 min 0 min 0 W/m² 12,9 km/h (3 Bft) 97,87 %
13.02.2026 19:00 3,4 °C 2,8 °C -0,6 °C 88 % 995,7 hPa 0,0 l/m² 0 min 0 min 0 W/m² 16,1 km/h (3 Bft) 97,87 %
13.02.2026 19:02 3,4 °C 2,8 °C -0,6 °C 89 % 995,7 hPa 0,0 l/m² 0 min 0 min 0 W/m² 16,1 km/h (3 Bft) 95,74 %
13.02.2026 19:04 3,4 °C 2,8 °C -0,6 °C 89 % 995,8 hPa 0,0 l/m² 0 min 0 min 0 W/m² 6,4 km/h (2 Bft) 95,83 %
13.02.2026 19:06 3,3 °C 2,8 °C -0,6 °C 88 % 995,9 hPa 0,0 l/m² 0 min 0 min 0 W/m² 16,1 km/h (3 Bft) 96,55 %
13.02.2026 19:08 3,3 °C 2,8 °C -0,6 °C 88 % 995,9 hPa 0,0 l/m² 0 min 0 min 0 W/m² 12,9 km/h (3 Bft) 97,87 %
13.02.2026 19:10 3,3 °C 2,8 °C -0,6 °C 88 % 995,9 hPa 0,0 l/m² 0 min 0 min 0 W/m² 12,9 km/h (3 Bft) 100,00 %
13.02.2026 19:12 3,3 °C 2,8 °C -0,6 °C 89 % 995,9 hPa 0,0 l/m² 0 min 0 min 0 W/m² 6,4 km/h (2 Bft) 97,87 %
13.02.2026 19:14 3,3 °C 2,8 °C -0,6 °C 89 % 995,9 hPa 0,0 l/m² 0 min 0 min 0 W/m² 6,4 km/h (2 Bft) 97,83 %
13.02.2026 19:16 3,3 °C 2,8 °C -0,6 °C 89 % 995,9 hPa 0,0 l/m² 0 min 0 min 0 W/m² 9,7 km/h (2 Bft) 95,74 %
13.02.2026 19:18 3,3 °C 2,8 °C -0,6 °C 89 % 996,0 hPa 0,0 l/m² 0 min 0 min 0 W/m² 16,1 km/h (3 Bft) 95,74 %
13.02.2026 19:20 3,3 °C 2,8 °C -0,6 °C 89 % 996,0 hPa 0,0 l/m² 0 min 0 min 0 W/m² 19,3 km/h (3 Bft) 97,87 %
13.02.2026 19:22 3,3 °C 2,8 °C -0,6 °C 89 % 996,0 hPa 0,0 l/m² 0 min 0 min 0 W/m² 16,1 km/h (3 Bft) 95,74 %
13.02.2026 19:24 3,3 °C 2,8 °C -0,6 °C 89 % 996,0 hPa 0,0 l/m² 0 min 0 min 0 W/m² 16,1 km/h (3 Bft) 95,74 %
13.02.2026 19:26 3,3 °C 2,8 °C -0,6 °C 89 % 996,1 hPa 0,0 l/m² 0 min 0 min 0 W/m² 6,4 km/h (2 Bft) 95,74 %
13.02.2026 19:28 3,3 °C 2,8 °C -0,6 °C 89 % 996,0 hPa 0,0 l/m² 0 min 0 min 0 W/m² 16,1 km/h (3 Bft) 95,74 %
13.02.2026 19:30 3,2 °C 2,8 °C -0,6 °C 89 % 996,1 hPa 0,0 l/m² 0 min 0 min 0 W/m² 12,9 km/h (3 Bft) 95,74 %
13.02.2026 19:32 3,2 °C 2,8 °C -0,6 °C 89 % 996,1 hPa 0,0 l/m² 0 min 0 min 0 W/m² 16,1 km/h (3 Bft) 95,74 %
13.02.2026 19:34 3,2 °C 2,8 °C -0,6 °C 89 % 996,1 hPa 0,0 l/m² 0 min 0 min 0 W/m² 12,9 km/h (3 Bft) 93,48 %
13.02.2026 19:36 3,2 °C 2,8 °C -0,6 °C 89 % 996,1 hPa 0,0 l/m² 0 min 0 min 0 W/m² 6,4 km/h (2 Bft) 95,74 %
13.02.2026 19:38 3,2 °C 2,8 °C -0,6 °C 89 % 996,1 hPa 0,0 l/m² 0 min 0 min 0 W/m² 12,9 km/h (3 Bft) 91,49 %
13.02.2026 19:40 3,2 °C 2,8 °C -0,6 °C 89 % 996,2 hPa 0,0 l/m² 0 min 0 min 0 W/m² 6,4 km/h (2 Bft) 93,62 %
13.02.2026 19:42 3,2 °C 2,8 °C -0,6 °C 89 % 996,1 hPa 0,0 l/m² 0 min 0 min 0 W/m² 12,9 km/h (3 Bft) 93,62 %
13.02.2026 19:44 3,2 °C 2,8 °C -0,6 °C 89 % 996,2 hPa 0,0 l/m² 0 min 0 min 0 W/m² 6,4 km/h (2 Bft) 95,74 %
13.02.2026 19:46 3,2 °C 2,8 °C -0,6 °C 89 % 996,2 hPa 0,0 l/m² 0 min 0 min 0 W/m² 12,9 km/h (3 Bft) 95,74 %
13.02.2026 19:48 3,2 °C 2,8 °C -0,6 °C 89 % 996,2 hPa 0,0 l/m² 0 min 0 min 0 W/m² 25,7 km/h (4 Bft) 93,62 %
13.02.2026 19:50 3,2 °C 2,8 °C -0,6 °C 89 % 996,2 hPa 0,0 l/m² 0 min 0 min 0 W/m² 12,9 km/h (3 Bft) 95,74 %
13.02.2026 19:52 3,1 °C 2,8 °C -0,6 °C 89 % 996,2 hPa 0,0 l/m² 0 min 0 min 0 W/m² 19,3 km/h (3 Bft) 95,74 %
13.02.2026 19:54 3,1 °C 2,8 °C -0,6 °C 89 % 996,2 hPa 0,0 l/m² 0 min 0 min 0 W/m² 16,1 km/h (3 Bft) 95,74 %
13.02.2026 19:56 3,1 °C 2,8 °C -0,6 °C 89 % 996,2 hPa 0,0 l/m² 0 min 0 min 0 W/m² 16,1 km/h (3 Bft) 97,83 %
13.02.2026 19:58 3,1 °C 2,8 °C -0,6 °C 89 % 996,3 hPa 0,0 l/m² 0 min 0 min 0 W/m² 12,9 km/h (3 Bft) 97,87 %
13.02.2026 20:00 3,1 °C 2,8 °C -0,6 °C 89 % 996,3 hPa 0,0 l/m² 0 min 0 min 0 W/m² 16,1 km/h (3 Bft) 97,87 %
13.02.2026 20:02 3,1 °C 2,8 °C -0,6 °C 89 % 996,3 hPa 0,0 l/m² 0 min 0 min 0 W/m² 12,9 km/h (3 Bft) 93,62 %
13.02.2026 20:04 3,1 °C 2,8 °C -0,6 °C 89 % 996,4 hPa 0,0 l/m² 0 min 0 min 0 W/m² 22,5 km/h (4 Bft) 97,92 %
13.02.2026 20:06 3,1 °C 2,8 °C -0,6 °C 89 % 996,4 hPa 0,0 l/m² 0 min 0 min 0 W/m² 9,7 km/h (2 Bft) 95,74 %
13.02.2026 20:08 3,1 °C 2,8 °C -0,6 °C 89 % 996,4 hPa 0,0 l/m² 0 min 0 min 0 W/m² 6,4 km/h (2 Bft) 97,87 %
13.02.2026 20:10 3,1 °C 2,8 °C -0,6 °C 89 % 996,5 hPa 0,0 l/m² 0 min 0 min 0 W/m² 9,7 km/h (2 Bft) 97,87 %
13.02.2026 20:12 3,1 °C 2,8 °C -0,6 °C 89 % 996,5 hPa 0,0 l/m² 0 min 0 min 0 W/m² 22,5 km/h (4 Bft) 95,74 %
13.02.2026 20:14 3,1 °C 2,8 °C -0,6 °C 89 % 996,5 hPa 0,0 l/m² 0 min 0 min 0 W/m² 12,9 km/h (3 Bft) 97,87 %
13.02.2026 20:16 3,1 °C 2,8 °C -1,1 °C 89 % 996,5 hPa 0,0 l/m² 0 min 0 min 0 W/m² 16,1 km/h (3 Bft) 97,87 %
13.02.2026 20:18 3,1 °C 2,8 °C -1,1 °C 89 % 996,5 hPa 0,0 l/m² 0 min 0 min 0 W/m² 12,9 km/h (3 Bft) 100,00 %
13.02.2026 20:20 3,0 °C 2,2 °C -1,1 °C 89 % 996,5 hPa 0,0 l/m² 0 min 0 min 0 W/m² 12,9 km/h (3 Bft) 100,00 %
13.02.2026 20:22 3,0 °C 2,2 °C -1,1 °C 89 % 996,6 hPa 0,0 l/m² 0 min 0 min 0 W/m² 12,9 km/h (3 Bft) 100,00 %
13.02.2026 20:24 3,0 °C 2,2 °C -1,1 °C 89 % 996,6 hPa 0,0 l/m² 0 min 0 min 0 W/m² 12,9 km/h (3 Bft) 97,87 %
13.02.2026 20:26 3,0 °C 2,8 °C -1,1 °C 89 % 996,6 hPa 0,0 l/m² 0 min 0 min 0 W/m² 9,7 km/h (2 Bft) 95,74 %
13.02.2026 20:28 3,0 °C 2,8 °C -0,6 °C 89 % 996,6 hPa 0,0 l/m² 0 min 0 min 0 W/m² 16,1 km/h (3 Bft) 57,45 %
13.02.2026 20:30 3,0 °C 2,8 °C -1,1 °C 90 % 996,7 hPa 0,0 l/m² 0 min 0 min 0 W/m² 12,9 km/h (3 Bft) 93,62 %
13.02.2026 20:32 3,0 °C 2,2 °C -1,1 °C 90 % 996,7 hPa 0,0 l/m² 0 min 0 min 0 W/m² 19,3 km/h (3 Bft) 97,87 %
13.02.2026 20:34 3,0 °C 2,2 °C -1,1 °C 90 % 996,7 hPa 0,0 l/m² 0 min 0 min 0 W/m² 16,1 km/h (3 Bft) 97,87 %
13.02.2026 20:36 3,0 °C 2,2 °C -1,1 °C 90 % 996,7 hPa 0,0 l/m² 0 min 0 min 0 W/m² 6,4 km/h (2 Bft) 95,74 %
13.02.2026 20:38 3,0 °C 2,2 °C -1,1 °C 90 % 996,8 hPa 0,0 l/m² 0 min 0 min 0 W/m² 6,4 km/h (2 Bft) 97,87 %
13.02.2026 20:40 3,0 °C 2,2 °C -1,1 °C 90 % 996,8 hPa 0,0 l/m² 0 min 0 min 0 W/m² 6,4 km/h (2 Bft) 97,87 %
13.02.2026 20:42 3,0 °C 2,8 °C -1,1 °C 90 % 996,8 hPa 0,0 l/m² 0 min 0 min 0 W/m² 9,7 km/h (2 Bft) 97,83 %
13.02.2026 20:44 3,0 °C 2,8 °C -1,1 °C 90 % 996,9 hPa 0,0 l/m² 0 min 0 min 0 W/m² 6,4 km/h (2 Bft) 97,87 %
13.02.2026 20:46 3,0 °C 2,2 °C -1,1 °C 90 % 997,0 hPa 0,0 l/m² 0 min 0 min 0 W/m² 19,3 km/h (3 Bft) 95,74 %
13.02.2026 20:48 2,9 °C 2,2 °C -1,1 °C 90 % 997,0 hPa 0,0 l/m² 0 min 0 min 0 W/m² 9,7 km/h (2 Bft) 97,87 %
13.02.2026 20:50 2,9 °C 2,2 °C -1,1 °C 90 % 997,0 hPa 0,0 l/m² 0 min 0 min 0 W/m² 9,7 km/h (2 Bft) 95,74 %
13.02.2026 20:52 2,9 °C 2,2 °C -1,1 °C 90 % 997,0 hPa 0,0 l/m² 0 min 0 min 0 W/m² 16,1 km/h (3 Bft) 97,87 %
13.02.2026 20:54 2,9 °C 2,2 °C -1,1 °C 90 % 997,1 hPa 0,0 l/m² 0 min 0 min 0 W/m² 12,9 km/h (3 Bft) 100,00 %
13.02.2026 20:56 2,9 °C 2,2 °C -1,1 °C 90 % 997,1 hPa 0,0 l/m² 0 min 0 min 0 W/m² 19,3 km/h (3 Bft) 100,00 %
13.02.2026 20:58 2,9 °C 2,2 °C -1,1 °C 90 % 997,1 hPa 0,0 l/m² 0 min 0 min 0 W/m² 12,9 km/h (3 Bft) 100,00 %
13.02.2026 21:00 2,9 °C 2,2 °C -1,1 °C 90 % 997,1 hPa 0,0 l/m² 0 min 0 min 0 W/m² 12,9 km/h (3 Bft) 100,00 %
13.02.2026 21:02 2,9 °C 2,2 °C -1,1 °C 90 % 997,1 hPa 0,0 l/m² 0 min 0 min 0 W/m² 6,4 km/h (2 Bft) 100,00 %
13.02.2026 21:04 2,8 °C 2,2 °C -1,1 °C 90 % 997,2 hPa 0,0 l/m² 0 min 0 min 0 W/m² 12,9 km/h (3 Bft) 97,92 %
13.02.2026 21:06 2,8 °C 2,2 °C -1,1 °C 90 % 997,3 hPa 0,0 l/m² 0 min 0 min 0 W/m² 9,7 km/h (2 Bft) 100,00 %
13.02.2026 21:08 2,8 °C 2,2 °C -1,1 °C 90 % 997,2 hPa 0,0 l/m² 0 min 0 min 0 W/m² 6,4 km/h (2 Bft) 100,00 %
13.02.2026 21:10 2,8 °C 2,2 °C -1,1 °C 90 % 997,3 hPa 0,0 l/m² 0 min 0 min 0 W/m² 12,9 km/h (3 Bft) 100,00 %
13.02.2026 21:12 2,8 °C 2,2 °C -1,1 °C 90 % 997,3 hPa 0,0 l/m² 0 min 0 min 0 W/m² 16,1 km/h (3 Bft) 100,00 %
13.02.2026 21:14 2,8 °C 2,2 °C -1,1 °C 90 % 997,3 hPa 0,0 l/m² 0 min 0 min 0 W/m² 16,1 km/h (3 Bft) 98,31 %
13.02.2026 21:16 2,7 °C 2,2 °C -1,1 °C 90 % 997,4 hPa 0,0 l/m² 0 min 0 min 0 W/m² 19,3 km/h (3 Bft) 100,00 %
13.02.2026 21:18 2,7 °C 2,2 °C -1,1 °C 90 % 997,4 hPa 0,0 l/m² 0 min 0 min 0 W/m² 6,4 km/h (2 Bft) 98,31 %
13.02.2026 21:20 2,7 °C 2,2 °C -1,1 °C 90 % 997,4 hPa 0,0 l/m² 0 min 0 min 0 W/m² 6,4 km/h (2 Bft) 100,00 %
13.02.2026 21:22 2,7 °C 2,2 °C -1,1 °C 90 % 997,4 hPa 0,0 l/m² 0 min 0 min 0 W/m² 16,1 km/h (3 Bft) 100,00 %
13.02.2026 21:24 2,7 °C 2,2 °C -1,1 °C 90 % 997,4 hPa 0,0 l/m² 0 min 0 min 0 W/m² 12,9 km/h (3 Bft) 95,74 %
13.02.2026 21:26 2,7 °C 2,2 °C -1,1 °C 90 % 997,4 hPa 0,0 l/m² 0 min 0 min 0 W/m² 6,4 km/h (2 Bft) 100,00 %
13.02.2026 21:28 2,7 °C 2,2 °C -1,1 °C 90 % 997,5 hPa 0,0 l/m² 0 min 0 min 0 W/m² 6,4 km/h (2 Bft) 100,00 %
13.02.2026 21:30 2,7 °C 2,2 °C -1,1 °C 90 % 997,4 hPa 0,0 l/m² 0 min 0 min 0 W/m² 6,4 km/h (2 Bft) 100,00 %
13.02.2026 21:32 2,7 °C 2,2 °C -1,1 °C 90 % 997,5 hPa 0,0 l/m² 0 min 0 min 0 W/m² 16,1 km/h (3 Bft) 95,74 %
13.02.2026 21:34 2,7 °C 2,2 °C -1,1 °C 90 % 997,5 hPa 0,0 l/m² 0 min 0 min 0 W/m² 12,9 km/h (3 Bft) 97,87 %
13.02.2026 21:36 2,7 °C 2,2 °C -1,1 °C 90 % 997,5 hPa 0,0 l/m² 0 min 0 min 0 W/m² 9,7 km/h (2 Bft) 97,87 %
13.02.2026 21:38 2,7 °C 2,2 °C -1,1 °C 90 % 997,5 hPa 0,0 l/m² 0 min 0 min 0 W/m² 16,1 km/h (3 Bft) 95,74 %
13.02.2026 21:40 2,6 °C 2,2 °C -1,1 °C 90 % 997,6 hPa 0,0 l/m² 0 min 0 min 0 W/m² 9,7 km/h (2 Bft) 97,87 %
13.02.2026 21:42 2,6 °C 2,2 °C -1,1 °C 90 % 997,7 hPa 0,0 l/m² 0 min 0 min 0 W/m² 9,7 km/h (2 Bft) 97,87 %
13.02.2026 21:44 2,6 °C 2,2 °C -1,1 °C 90 % 997,7 hPa 0,0 l/m² 0 min 0 min 0 W/m² 12,9 km/h (3 Bft) 97,87 %
13.02.2026 21:46 2,6 °C 2,2 °C -1,1 °C 90 % 997,8 hPa 0,0 l/m² 0 min 0 min 0 W/m² 9,7 km/h (2 Bft) 97,87 %
13.02.2026 21:48 2,6 °C 2,2 °C -1,1 °C 90 % 997,8 hPa 0,0 l/m² 0 min 0 min 0 W/m² 9,7 km/h (2 Bft) 97,87 %
13.02.2026 21:50 2,5 °C 2,2 °C -1,1 °C 90 % 997,7 hPa 0,0 l/m² 0 min 0 min 0 W/m² 6,4 km/h (2 Bft) 97,87 %
13.02.2026 21:52 2,5 °C 2,2 °C -1,1 °C 90 % 997,7 hPa 0,0 l/m² 0 min 0 min 0 W/m² 9,7 km/h (2 Bft) 97,83 %
13.02.2026 21:54 2,5 °C 2,2 °C -1,1 °C 90 % 997,7 hPa 0,0 l/m² 0 min 0 min 0 W/m² 22,5 km/h (4 Bft) 97,87 %
13.02.2026 21:56 2,5 °C 1,7 °C -1,1 °C 90 % 997,8 hPa 0,0 l/m² 0 min 0 min 0 W/m² 16,1 km/h (3 Bft) 97,87 %
13.02.2026 21:58 2,5 °C 2,2 °C -1,1 °C 90 % 997,8 hPa 0,0 l/m² 0 min 0 min 0 W/m² 12,9 km/h (3 Bft) 97,87 %
13.02.2026 22:00 2,5 °C 2,2 °C -1,1 °C 90 % 997,8 hPa 0,0 l/m² 0 min 0 min 0 W/m² 12,9 km/h (3 Bft) 95,74 %
13.02.2026 22:02 2,4 °C 2,2 °C -1,1 °C 90 % 997,8 hPa 0,0 l/m² 0 min 0 min 0 W/m² 6,4 km/h (2 Bft) 93,62 %
13.02.2026 22:04 2,4 °C 2,2 °C -1,1 °C 90 % 997,8 hPa 0,0 l/m² 0 min 0 min 0 W/m² 16,1 km/h (3 Bft) 97,92 %
13.02.2026 22:06 2,4 °C 1,7 °C -1,1 °C 90 % 997,9 hPa 0,0 l/m² 0 min 0 min 0 W/m² 16,1 km/h (3 Bft) 98,31 %
13.02.2026 22:08 2,4 °C 1,7 °C -1,1 °C 90 % 997,9 hPa 0,0 l/m² 0 min 0 min 0 W/m² 19,3 km/h (3 Bft) 97,14 %
13.02.2026 22:10 2,4 °C 1,7 °C -1,1 °C 90 % 997,9 hPa 0,0 l/m² 0 min 0 min 0 W/m² 16,1 km/h (3 Bft) 97,87 %
13.02.2026 22:12 2,4 °C 1,7 °C -1,1 °C 90 % 997,9 hPa 0,0 l/m² 0 min 0 min 0 W/m² 16,1 km/h (3 Bft) 95,74 %
13.02.2026 22:14 2,4 °C 2,2 °C -1,7 °C 90 % 997,9 hPa 0,0 l/m² 0 min 0 min 0 W/m² 12,9 km/h (3 Bft) 95,65 %
13.02.2026 22:16 2,4 °C 1,7 °C -1,7 °C 90 % 998,0 hPa 0,0 l/m² 0 min 0 min 0 W/m² 22,5 km/h (4 Bft) 97,87 %
13.02.2026 22:18 2,4 °C 1,7 °C -1,7 °C 90 % 998,0 hPa 0,0 l/m² 0 min 0 min 0 W/m² 16,1 km/h (3 Bft) 97,87 %
13.02.2026 22:20 2,4 °C 1,7 °C -1,7 °C 90 % 998,0 hPa 0,0 l/m² 0 min 0 min 0 W/m² 25,7 km/h (4 Bft) 97,87 %
13.02.2026 22:22 2,3 °C 1,7 °C -1,7 °C 90 % 998,0 hPa 0,0 l/m² 0 min 0 min 0 W/m² 19,3 km/h (3 Bft) 97,87 %
13.02.2026 22:24 2,4 °C 1,7 °C -1,7 °C 91 % 998,1 hPa 0,0 l/m² 0 min 0 min 0 W/m² 9,7 km/h (2 Bft) 96,36 %
13.02.2026 22:26 2,3 °C 1,7 °C -1,7 °C 91 % 998,1 hPa 0,0 l/m² 0 min 0 min 0 W/m² 12,9 km/h (3 Bft) 98,00 %
13.02.2026 22:28 2,3 °C 1,7 °C -1,7 °C 91 % 998,2 hPa 0,0 l/m² 0 min 0 min 0 W/m² 16,1 km/h (3 Bft) 97,83 %
13.02.2026 22:30 2,3 °C 1,7 °C -1,7 °C 91 % 998,1 hPa 0,0 l/m² 0 min 0 min 0 W/m² 22,5 km/h (4 Bft) 97,87 %
13.02.2026 22:32 2,3 °C 1,7 °C -1,7 °C 91 % 998,1 hPa 0,0 l/m² 0 min 0 min 0 W/m² 9,7 km/h (2 Bft) 100,00 %
13.02.2026 22:34 2,3 °C 1,7 °C -1,7 °C 91 % 998,2 hPa 0,0 l/m² 0 min 0 min 0 W/m² 3,2 km/h (1 Bft) 97,87 %
13.02.2026 22:36 2,3 °C 1,7 °C -1,7 °C 91 % 998,2 hPa 0,0 l/m² 0 min 0 min 0 W/m² 6,4 km/h (2 Bft) 95,74 %
13.02.2026 22:38 2,3 °C 1,7 °C -1,7 °C 91 % 998,3 hPa 0,0 l/m² 0 min 0 min 0 W/m² 9,7 km/h (2 Bft) 95,74 %
13.02.2026 22:40 2,3 °C 1,7 °C -1,7 °C 91 % 998,3 hPa 0,0 l/m² 0 min 0 min 0 W/m² 19,3 km/h (3 Bft) 97,87 %
13.02.2026 22:42 2,3 °C 1,7 °C -1,7 °C 91 % 998,3 hPa 0,0 l/m² 0 min 0 min 0 W/m² 16,1 km/h (3 Bft) 97,87 %
13.02.2026 22:44 2,3 °C 1,7 °C -1,7 °C 91 % 998,3 hPa 0,0 l/m² 0 min 0 min 0 W/m² 16,1 km/h (3 Bft) 95,74 %
13.02.2026 22:46 2,3 °C 1,7 °C -1,7 °C 91 % 998,3 hPa 0,0 l/m² 0 min 0 min 0 W/m² 16,1 km/h (3 Bft) 97,87 %
13.02.2026 22:48 2,3 °C 1,7 °C -1,7 °C 91 % 998,3 hPa 0,0 l/m² 0 min 0 min 0 W/m² 12,9 km/h (3 Bft) 97,87 %
13.02.2026 22:50 2,3 °C 1,7 °C -1,7 °C 91 % 998,3 hPa 0,0 l/m² 0 min 0 min 0 W/m² 12,9 km/h (3 Bft) 97,87 %
13.02.2026 22:52 2,3 °C 1,7 °C -1,7 °C 91 % 998,3 hPa 0,0 l/m² 0 min 0 min 0 W/m² 6,4 km/h (2 Bft) 97,83 %
13.02.2026 22:54 2,2 °C 1,7 °C -1,7 °C 91 % 998,4 hPa 0,0 l/m² 0 min 0 min 0 W/m² 19,3 km/h (3 Bft) 97,87 %
13.02.2026 22:56 2,2 °C 1,7 °C -1,7 °C 91 % 998,4 hPa 0,0 l/m² 0 min 0 min 0 W/m² 12,9 km/h (3 Bft) 97,87 %
13.02.2026 22:58 2,2 °C 1,7 °C -1,7 °C 91 % 998,4 hPa 0,0 l/m² 0 min 0 min 0 W/m² 12,9 km/h (3 Bft) 97,87 %
13.02.2026 23:00 2,2 °C 1,7 °C -1,7 °C 91 % 998,4 hPa 0,0 l/m² 0 min 0 min 0 W/m² 12,9 km/h (3 Bft) 97,92 %
13.02.2026 23:02 2,2 °C 1,7 °C -1,7 °C 91 % 998,4 hPa 0,0 l/m² 0 min 0 min 0 W/m² 16,1 km/h (3 Bft) 93,48 %
13.02.2026 23:04 2,2 °C 1,7 °C -1,7 °C 91 % 998,4 hPa 0,0 l/m² 0 min 0 min 0 W/m² 9,7 km/h (2 Bft) 97,87 %
13.02.2026 23:06 2,2 °C 1,7 °C -1,7 °C 91 % 998,4 hPa 0,0 l/m² 0 min 0 min 0 W/m² 9,7 km/h (2 Bft) 97,87 %
13.02.2026 23:08 2,2 °C 1,7 °C -1,7 °C 91 % 998,5 hPa 0,0 l/m² 0 min 0 min 0 W/m² 9,7 km/h (2 Bft) 97,92 %
13.02.2026 23:10 2,2 °C 1,7 °C -1,7 °C 91 % 998,5 hPa 0,0 l/m² 0 min 0 min 0 W/m² 16,1 km/h (3 Bft) 97,14 %
13.02.2026 23:12 2,2 °C 1,7 °C -1,7 °C 91 % 998,6 hPa 0,0 l/m² 0 min 0 min 0 W/m² 12,9 km/h (3 Bft) 93,62 %
13.02.2026 23:14 2,2 °C 1,7 °C -1,7 °C 91 % 998,6 hPa 0,0 l/m² 0 min 0 min 0 W/m² 9,7 km/h (2 Bft) 97,87 %
13.02.2026 23:16 2,2 °C 1,7 °C -1,7 °C 91 % 998,5 hPa 0,0 l/m² 0 min 0 min 0 W/m² 12,9 km/h (3 Bft) 97,87 %
13.02.2026 23:18 2,2 °C 1,7 °C -1,7 °C 91 % 998,6 hPa 0,0 l/m² 0 min 0 min 0 W/m² 9,7 km/h (2 Bft) 97,87 %
13.02.2026 23:20 2,2 °C 1,7 °C -1,7 °C 91 % 998,6 hPa 0,0 l/m² 0 min 0 min 0 W/m² 12,9 km/h (3 Bft) 97,83 %
13.02.2026 23:22 2,1 °C 1,7 °C -1,7 °C 91 % 998,6 hPa 0,0 l/m² 0 min 0 min 0 W/m² 9,7 km/h (2 Bft) 97,87 %
13.02.2026 23:24 2,1 °C 1,7 °C -1,7 °C 91 % 998,7 hPa 0,0 l/m² 0 min 0 min 0 W/m² 6,4 km/h (2 Bft) 91,49 %
13.02.2026 23:26 2,1 °C 1,7 °C -1,7 °C 91 % 998,6 hPa 0,0 l/m² 0 min 0 min 0 W/m² 12,9 km/h (3 Bft) 97,87 %
13.02.2026 23:28 2,1 °C 1,7 °C -1,7 °C 91 % 998,7 hPa 0,0 l/m² 0 min 0 min 0 W/m² 9,7 km/h (2 Bft) 97,87 %
13.02.2026 23:30 2,1 °C 1,7 °C -1,7 °C 91 % 998,6 hPa 0,0 l/m² 0 min 0 min 0 W/m² 9,7 km/h (2 Bft) 97,87 %
13.02.2026 23:32 2,1 °C 1,7 °C -1,7 °C 91 % 998,7 hPa 0,0 l/m² 0 min 0 min 0 W/m² 9,7 km/h (2 Bft) 100,00 %
13.02.2026 23:34 2,1 °C 1,7 °C -1,7 °C 91 % 998,7 hPa 0,0 l/m² 0 min 0 min 0 W/m² 12,9 km/h (3 Bft) 100,00 %
13.02.2026 23:36 2,1 °C 1,7 °C -1,7 °C 91 % 998,8 hPa 0,0 l/m² 0 min 0 min 0 W/m² 9,7 km/h (2 Bft) 95,74 %
13.02.2026 23:38 2,1 °C 1,7 °C -1,7 °C 91 % 998,8 hPa 0,0 l/m² 0 min 0 min 0 W/m² 12,9 km/h (3 Bft) 100,00 %
13.02.2026 23:40 2,1 °C 1,7 °C -1,7 °C 91 % 998,9 hPa 0,0 l/m² 0 min 0 min 0 W/m² 12,9 km/h (3 Bft) 97,83 %
13.02.2026 23:42 2,1 °C 1,7 °C -1,7 °C 91 % 998,9 hPa 0,0 l/m² 0 min 0 min 0 W/m² 9,7 km/h (2 Bft) 100,00 %
13.02.2026 23:44 2,0 °C 1,7 °C -1,7 °C 91 % 999,0 hPa 0,0 l/m² 0 min 0 min 0 W/m² 6,4 km/h (2 Bft) 100,00 %
13.02.2026 23:46 2,0 °C 1,7 °C -1,7 °C 91 % 999,0 hPa 0,0 l/m² 0 min 0 min 0 W/m² 6,4 km/h (2 Bft) 100,00 %
13.02.2026 23:48 2,0 °C 1,7 °C -1,7 °C 91 % 999,0 hPa 0,0 l/m² 0 min 0 min 0 W/m² 16,1 km/h (3 Bft) 100,00 %
13.02.2026 23:50 2,0 °C 1,7 °C -1,7 °C 91 % 999,1 hPa 0,0 l/m² 0 min 0 min 0 W/m² 16,1 km/h (3 Bft) 97,87 %
13.02.2026 23:52 2,0 °C 1,7 °C -1,7 °C 91 % 999,1 hPa 0,0 l/m² 0 min 0 min 0 W/m² 9,7 km/h (2 Bft) 95,74 %
13.02.2026 23:54 2,0 °C 1,7 °C -1,7 °C 91 % 999,2 hPa 0,0 l/m² 0 min 0 min 0 W/m² 22,5 km/h (4 Bft) 95,74 %
13.02.2026 23:56 1,9 °C 1,7 °C -1,7 °C 91 % 999,2 hPa 0,0 l/m² 0 min 0 min 0 W/m² 6,4 km/h (2 Bft) 95,74 %
13.02.2026 23:58 1,9 °C 1,7 °C -1,7 °C 91 % 999,3 hPa 0,0 l/m² 0 min 0 min 0 W/m² 19,3 km/h (3 Bft) 95,74 %
_ Min-Zeit 23:56 21:56 22:14 13:02 00:00 - - - - 07:26 10:52
Minimum _ 1,9 °C 1,7 °C -1,7 °C 82 % 988,2 hPa - - - - 0,0 km/h (0 Bft) 43,24 %
_ Max-Zeit 00:00 12:22 00:00 00:58 23:58 00:44 12:12 00:22 12:42 04:50 00:30
Maximum _ 7,9 °C 10,0 °C 4,4 °C 96 % 999,3 hPa 0,2 l/m² 4 min 2 min 382 W/m² 35,4 km/h
O (5 Bft)
100,00 %
Durchschnitt _ 5,0 °C 4,9 °C 1,4 °C 89 % 993,3 hPa #0,2 l/m² #1:02 h #6 min. 112 W/m² 11,8 km/h (2 Bft) 96,91 %
© 2026 W. Hausmann